EW4969 Weather Reports


Display with metric or nautical units.
time (UTC)temp
F
wind
direction
speed
MPH
gust
MPH
rain 1hr
in
rain 24hr
in
rain mn
in
humidity
%
barometer
mb
20190223163405 60 277 15.0 26.0 0.00 0.06 0.02 38 1009.7
20190223163304 60 278 16.0 26.0 0.00 0.06 0.02 38 1009.8
20190223163204 61 279 16.0 26.0 0.00 0.06 0.02 37 1009.7
20190223163104 61 280 16.0 26.0 0.00 0.06 0.02 37 1009.6
20190223163005 61 279 15.0 26.0 0.00 0.06 0.02 39 1009.7
20190223162905 61 279 15.0 25.0 0.00 0.06 0.02 39 1009.6
20190223162804 60 280 15.0 25.0 0.00 0.06 0.02 39 1009.6
20190223162704 60 280 15.0 25.0 0.00 0.06 0.02 38 1009.5
20190223162604 60 281 14.0 25.0 0.00 0.06 0.02 37 1009.3
20190223162504 60 280 13.0 25.0 0.00 0.06 0.02 38 1009.4
20190223162404 61 280 12.0 25.0 0.00 0.06 0.02 37 1009.5
20190223162304 61 279 12.0 23.0 0.00 0.06 0.02 38 1009.7
20190223162205 61 279 12.0 23.0 0.00 0.06 0.02 39 1009.8
20190223162104 61 277 12.0 23.0 0.00 0.06 0.02 41 1009.9
20190223162004 60 279 12.0 23.0 0.00 0.06 0.02 40 1009.9
20190223161905 60 282 13.0 23.0 0.00 0.06 0.02 40 1010.0
20190223161804 60 282 13.0 23.0 0.00 0.06 0.02 40 1010.1
20190223161704 60 281 13.0 27.0 0.00 0.06 0.02 40 1010.1
20190223161604 60 280 14.0 27.0 0.00 0.06 0.02 39 1010.1
20190223161504 60 283 15.0 30.0 0.00 0.06 0.02 42 1010.1
20190223161404 60 282 15.0 30.0 0.00 0.06 0.02 41 1010.1
20190223161304 60 282 15.0 30.0 0.00 0.06 0.02 40 1010.1
20190223161204 60 282 14.0 30.0 0.00 0.06 0.02 40 1010.0
20190223161104 60 283 14.0 30.0 0.00 0.07 0.02 41 1010.0
20190223161004 60 282 15.0 30.0 0.00 0.07 0.02 41 1010.1
20190223160903 60 280 14.0 30.0 0.00 0.07 0.02 42 1010.0
20190223160804 60 281 14.0 30.0 0.00 0.07 0.02 41 1009.9
20190223160704 60 279 14.0 30.0 0.00 0.07 0.02 43 1009.8
20190223160604 60 280 13.0 30.0 0.00 0.07 0.02 47 1009.8
20190223160504 59 278 13.0 27.0 0.00 0.07 0.02 47 1009.8
20190223160404 59 276 13.0 27.0 0.00 0.07 0.02 45 1009.9
20190223160304 59 276 13.0 27.0 0.00 0.07 0.02 45 1009.8
20190223160204 59 275 13.0 27.0 0.00 0.07 0.02 45 1009.9
20190223160104 59 274 13.0 27.0 0.00 0.07 0.02 46 1009.8
20190223160005 59 275 12.0 27.0 0.00 0.07 0.02 45 1009.9
20190223155904 59 276 12.0 22.0 0.00 0.07 0.02 46 1009.9
20190223155804 59 275 11.0 22.0 0.00 0.07 0.02 47 1009.9
20190223155704 59 274 11.0 22.0 0.00 0.07 0.02 47 1010.0
20190223155604 59 272 11.0 22.0 0.00 0.07 0.02 46 1010.0
20190223155504 59 272 11.0 19.0 0.00 0.07 0.02 48 1010.2
20190223155404 59 273 11.0 17.0 0.00 0.07 0.02 48 1010.0
20190223155304 59 275 11.0 19.0 0.00 0.07 0.02 49 1010.0
20190223155203 59 275 11.0 25.0 0.00 0.07 0.02 49 1010.0
20190223155104 59 275 11.0 25.0 0.00 0.07 0.02 49 1010.1
20190223155004 59 274 11.0 25.0 0.00 0.07 0.02 50 1010.1
20190223154904 59 273 11.0 25.0 0.00 0.07 0.02 49 1010.2
20190223154804 58 273 12.0 25.0 0.00 0.07 0.02 50 1010.1
20190223154704 58 277 12.0 25.0 0.00 0.07 0.02 49 1010.1
20190223154604 58 278 11.0 25.0 0.00 0.07 0.02 49 1010.1
20190223154505 58 279 11.0 25.0 0.00 0.07 0.02 48 1010.0
20190223154404 58 280 11.0 25.0 0.00 0.07 0.02 54 1010.0
20190223154304 58 277 9.0 25.0 0.00 0.07 0.02 54 1010.1
20190223154204 58 279 9.0 21.0 0.00 0.07 0.02 54 1010.2
20190223154105 58 278 9.0 21.0 0.00 0.07 0.02 54 1010.2
20190223154004 58 279 9.0 21.0 0.00 0.07 0.02 56 1010.1
20190223153904 58 279 9.0 21.0 0.00 0.07 0.02 56 1010.1
20190223153804 58 279 8.0 21.0 0.00 0.07 0.02 55 1010.2
20190223153704 58 278 8.0 21.0 0.00 0.07 0.02 55 1010.1
20190223153605 58 280 8.0 21.0 0.00 0.07 0.02 57 1010.1
20190223153504 58 279 8.0 18.0 0.00 0.07 0.02 57 1010.2
20190223153404 58 277 8.0 18.0 0.00 0.07 0.02 57 1010.1
20190223153304 58 277 8.0 18.0 0.01 0.07 0.02 57 1010.1
20190223153204 58 279 7.0 18.0 0.01 0.07 0.02 57 1010.2
20190223153104 58 277 7.0 18.0 0.01 0.07 0.02 58 1010.2
20190223153004 57 275 7.0 18.0 0.01 0.07 0.02 59 1010.2
20190223152904 57 274 7.0 18.0 0.01 0.07 0.02 60 1010.1
20190223152804 57 277 7.0 18.0 0.01 0.07 0.02 63 1010.2
20190223152704 57 278 7.0 18.0 0.01 0.07 0.02 63 1010.1
20190223152604 57 275 7.0 18.0 0.01 0.07 0.02 61 1010.2
20190223152504 57 273 7.0 16.0 0.01 0.07 0.02 62 1010.2
20190223152404 57 275 7.0 16.0 0.01 0.07 0.02 63 1010.1
20190223152304 57 279 7.0 16.0 0.01 0.07 0.02 65 1010.2
20190223152205 57 277 7.0 18.0 0.01 0.07 0.02 65 1010.2
20190223152104 57 277 7.0 18.0 0.01 0.07 0.02 66 1010.1
20190223152005 56 280 7.0 18.0 0.01 0.07 0.02 66 1010.1
20190223151904 56 281 7.0 18.0 0.01 0.07 0.02 66 1010.1
20190223151804 56 278 7.0 18.0 0.01 0.07 0.02 67 1010.1
20190223151704 56 277 7.0 18.0 0.01 0.07 0.02 66 1010.0
20190223151604 56 277 7.0 18.0 0.01 0.07 0.02 69 1010.1
20190223151505 56 280 8.0 18.0 0.01 0.07 0.02 70 1010.0
20190223151404 56 279 8.0 18.0 0.01 0.07 0.02 68 1010.1
20190223151304 55 280 8.0 18.0 0.01 0.07 0.02 72 1010.1
20190223151204 55 278 8.0 17.0 0.01 0.07 0.02 74 1010.0
20190223151104 55 278 8.0 17.0 0.01 0.07 0.02 78 1010.1
20190223151005 54 279 8.0 17.0 0.01 0.07 0.02 78 1010.0
20190223150904 54 278 8.0 17.0 0.01 0.07 0.02 82 1010.1
20190223150804 53 279 7.0 17.0 0.01 0.07 0.02 92 1010.1
20190223150704 53 278 7.0 17.0 0.01 0.07 0.02 92 1010.1
20190223150604 52 280 7.0 17.0 0.01 0.07 0.02 95 1010.2
20190223150505 52 279 7.0 16.0 0.01 0.07 0.02 97 1010.2
20190223150405 51 276 6.0 16.0 0.01 0.07 0.02 97 1010.2
20190223150304 51 271 6.0 16.0 0.01 0.07 0.02 97 1010.2
20190223150204 51 272 6.0 16.0 0.01 0.07 0.02 98 1010.2
20190223150105 51 274 5.0 16.0 0.01 0.07 0.02 98 1010.1
20190223150005 51 269 5.0 14.0 0.01 0.07 0.02 98 1010.2
20190223145904 51 268 5.0 12.0 0.01 0.07 0.02 98 1010.1
20190223145804 51 267 5.0 12.0 0.01 0.07 0.02 98 1010.1
20190223145704 51 265 5.0 12.0 0.01 0.07 0.02 98 1010.0
20190223145604 51 260 5.0 12.0 0.01 0.07 0.02 98 1010.0
20190223145504 51 259 5.0 12.0 0.01 0.07 0.02 98 1010.1
20190223145404 51 259 5.0 12.0 0.01 0.07 0.02 98 1010.1
20190223145304 51 259 5.0 12.0 0.01 0.07 0.02 98 1010.0
20190223145204 51 260 5.0 11.0 0.01 0.07 0.02 98 1009.9
20190223145104 51 260 5.0 11.0 0.01 0.07 0.02 98 1009.9
20190223145004 51 263 5.0 11.0 0.01 0.07 0.02 98 1009.9
20190223144904 51 259 5.0 11.0 0.01 0.07 0.02 98 1010.0
20190223144805 51 256 5.0 11.0 0.01 0.07 0.02 98 1009.9
20190223144704 51 256 4.0 10.0 0.01 0.07 0.02 98 1009.8
20190223144604 51 258 4.0 10.0 0.01 0.07 0.02 98 1009.9
20190223144504 51 260 4.0 10.0 0.01 0.07 0.02 98 1009.8
20190223144405 51 262 4.0 10.0 0.01 0.07 0.02 98 1009.8
20190223144304 51 264 4.0 10.0 0.01 0.07 0.02 98 1009.8
20190223144205 51 262 4.0 9.0 0.01 0.07 0.02 98 1009.8
20190223144104 51 260 4.0 9.0 0.01 0.07 0.02 98 1009.8
20190223144004 52 260 4.0 9.0 0.01 0.07 0.02 98 1009.7
20190223143904 52 264 2.0 9.0 0.01 0.07 0.02 98 1009.7
20190223143804 52 267 2.0 8.0 0.01 0.07 0.02 98 1009.7
20190223143704 52 268 2.0 8.0 0.01 0.07 0.02 98 1009.7
20190223143604 52 270 1.0 8.0 0.01 0.07 0.02 98 1009.7
20190223143504 52 269 1.0 8.0 0.01 0.07 0.02 98 1009.7
20190223143404 52 268 1.0 8.0 0.01 0.07 0.02 98 1009.7
20190223143304 52 274 1.0 8.0 0.00 0.06 0.01 99 1009.6
20190223143205 52 279 1.0 5.0 0.00 0.06 0.01 99 1009.7
20190223143104 52 277 1.0 5.0 0.00 0.06 0.01 99 1009.7
20190223143004 52 274 1.0 5.0 0.00 0.06 0.01 99 1009.7
20190223142904 52 274 1.0 5.0 0.00 0.06 0.01 99 1009.6
20190223142804 52 270 1.0 5.0 0.00 0.06 0.01 99 1009.6
20190223142704 52 273 1.0 5.0 0.00 0.06 0.01 99 1009.7
20190223142605 52 271 1.0 5.0 0.00 0.06 0.01 99 1009.6
20190223142504 52 271 1.0 5.0 0.00 0.06 0.01 99 1009.6
20190223142404 52 273 1.0 5.0 0.00 0.06 0.01 99 1009.6
20190223142304 52 267 1.0 5.0 0.00 0.06 0.01 99 1009.6
20190223142205 52 264 1.0 4.0 0.00 0.06 0.01 99 1009.5
20190223142105 52 265 1.0 4.0 0.00 0.06 0.01 99 1009.5
20190223142004 52 264 1.0 4.0 0.00 0.06 0.01 99 1009.4
20190223141904 52 262 1.0 4.0 0.00 0.06 0.01 99 1009.5
20190223141804 52 262 1.0 4.0 0.00 0.06 0.01 99 1009.5
20190223141705 52 262 1.0 4.0 0.00 0.06 0.01 99 1009.5
20190223141604 52 260 1.0 4.0 0.00 0.06 0.01 99 1009.5
20190223141504 52 259 1.0 4.0 0.00 0.06 0.01 99 1009.5
20190223141404 52 255 1.0 4.0 0.00 0.06 0.01 99 1009.5
20190223141304 52 253 1.0 4.0 0.00 0.06 0.01 99 1009.5
20190223141204 52 250 1.0 4.0 0.00 0.06 0.01 99 1009.5
20190223141104 52 249 1.0 4.0 0.00 0.06 0.01 99 1009.5
20190223141004 52 243 1.0 4.0 0.00 0.06 0.01 99 1009.4
20190223140904 52 246 1.0 4.0 0.00 0.06 0.01 99 1009.5
20190223140804 52 247 1.0 4.0 0.00 0.06 0.01 99 1009.5
20190223140705 52 245 1.0 4.0 0.00 0.06 0.01 99 1009.4
20190223140604 52 247 1.0 4.0 0.00 0.06 0.01 99 1009.4
20190223140504 52 246 1.0 4.0 0.00 0.06 0.01 99 1009.4
20190223140404 52 245 1.0 4.0 0.00 0.06 0.01 99 1009.4
20190223140305 52 245 1.0 4.0 0.00 0.06 0.01 99 1009.4
20190223140204 52 245 1.0 4.0 0.00 0.06 0.01 99 1009.3
20190223140104 52 242 1.0 3.0 0.00 0.06 0.01 99 1009.3
20190223140004 52 243 1.0 3.0 0.00 0.06 0.01 99 1009.3
20190223135904 52 238 1.0 4.0 0.00 0.06 0.01 99 1009.3
20190223135804 52 238 1.0 4.0 0.00 0.06 0.01 99 1009.3
20190223135705 52 232 1.0 4.0 0.00 0.06 0.01 99 1009.3
20190223135605 52 229 1.0 4.0 0.00 0.06 0.01 99 1009.2
20190223135504 52 226 1.0 4.0 0.00 0.06 0.01 99 1009.4
20190223135404 52 226 1.0 4.0 0.00 0.06 0.01 99 1009.3
20190223135304 52 226 1.0 4.0 0.00 0.06 0.01 99 1009.3
20190223135205 52 233 1.0 4.0 0.00 0.06 0.01 99 1009.4
20190223135104 52 233 1.0 4.0 0.00 0.06 0.01 99 1009.4
20190223135004 52 233 1.0 4.0 0.00 0.06 0.01 99 1009.4
20190223134904 52 234 1.0 4.0 0.00 0.06 0.01 99 1009.4
20190223134804 52 235 1.0 4.0 0.00 0.06 0.01 99 1009.4
20190223134705 52 241 1.0 4.0 0.00 0.06 0.01 99 1009.4
20190223134604 52 243 1.0 4.0 0.00 0.06 0.01 99 1009.4
20190223134504 52 247 1.0 3.0 0.00 0.06 0.01 99 1009.3
20190223134404 52 249 1.0 3.0 0.00 0.06 0.01 99 1009.3
20190223134305 52 249 1.0 3.0 0.00 0.06 0.01 99 1009.4
20190223134204 52 244 1.0 3.0 0.00 0.06 0.01 99 1009.3
20190223134105 52 247 1.0 3.0 0.00 0.06 0.01 99 1009.4
20190223134004 52 245 1.0 4.0 0.00 0.06 0.01 99 1009.3
20190223133904 52 247 1.0 4.0 0.00 0.06 0.01 99 1009.3
20190223133804 52 247 1.0 4.0 0.00 0.06 0.01 99 1009.3
20190223133704 52 247 1.0 4.0 0.00 0.06 0.01 99 1009.3
20190223133604 52 237 1.0 4.0 0.00 0.06 0.01 99 1009.3
20190223133505 52 232 1.0 5.0 0.00 0.06 0.01 99 1009.3
20190223133404 52 228 1.0 5.0 0.00 0.06 0.01 99 1009.3
20190223133304 52 223 1.0 5.0 0.00 0.06 0.01 99 1009.2
20190223133204 52 224 1.0 5.0 0.00 0.06 0.01 99 1009.3
20190223133104 52 221 1.0 6.0 0.00 0.06 0.01 99 1009.2
20190223133005 52 222 1.0 6.0 0.00 0.06 0.01 99 1009.3
20190223132904 52 221 1.0 6.0 0.00 0.06 0.01 99 1009.3
20190223132804 52 222 2.0 6.0 0.00 0.06 0.01 99 1009.2
20190223132704 52 223 2.0 6.0 0.00 0.06 0.01 99 1009.2
20190223132604 52 231 1.0 6.0 0.00 0.06 0.01 99 1009.1
20190223132504 52 232 1.0 6.0 0.00 0.06 0.01 99 1009.2
20190223132404 52 238 1.0 6.0 0.00 0.06 0.01 99 1009.2
20190223132304 52 243 2.0 6.0 0.00 0.06 0.01 99 1009.0
20190223132204 52 241 2.0 6.0 0.00 0.06 0.01 99 1009.1
20190223132104 52 248 1.0 5.0 0.00 0.06 0.01 99 1009.1
20190223132004 52 247 1.0 5.0 0.00 0.06 0.01 99 1009.0
20190223131904 52 253 1.0 5.0 0.00 0.06 0.01 99 1009.0
20190223131804 52 256 1.0 5.0 0.00 0.06 0.01 99 1009.0
20190223131704 52 260 1.0 5.0 0.00 0.06 0.01 99 1009.0
20190223131604 52 253 1.0 6.0 0.00 0.06 0.01 99 1009.1
20190223131504 52 252 2.0 6.0 0.00 0.06 0.01 99 1009.0
20190223131404 52 251 2.0 6.0 0.00 0.06 0.01 99 1008.9
20190223131304 52 247 1.0 6.0 0.00 0.06 0.01 99 1009.0
20190223131206 52 251 1.0 6.0 0.00 0.06 0.01 99 1008.9
20190223131104 52 246 1.0 6.0 0.00 0.06 0.01 99 1008.9
20190223131005 52 248 1.0 6.0 0.00 0.06 0.01 99 1008.8
20190223130904 52 244 1.0 6.0 0.00 0.06 0.01 99 1008.9
20190223130804 52 239 2.0 6.0 0.00 0.06 0.01 99 1008.9
20190223130704 52 240 2.0 6.0 0.00 0.06 0.01 99 1008.9
20190223130604 52 237 2.0 5.0 0.00 0.06 0.01 99 1008.9
20190223130504 52 237 2.0 9.0 0.00 0.06 0.01 99 1008.9
20190223130404 52 233 1.0 9.0 0.00 0.06 0.01 99 1008.9
20190223130304 52 231 1.0 9.0 0.00 0.06 0.01 99 1008.8
20190223130204 52 232 1.0 9.0 0.00 0.06 0.01 99 1008.8
20190223130104 52 234 1.0 9.0 0.00 0.06 0.01 99 1008.8
20190223130004 52 237 1.0 9.0 0.00 0.06 0.01 99 1008.8
20190223125904 52 236 1.0 9.0 0.00 0.06 0.01 99 1008.8
20190223125804 52 238 1.0 9.0 0.00 0.06 0.01 99 1008.8
20190223125704 52 235 1.0 9.0 0.00 0.06 0.01 99 1008.8
20190223125605 52 241 1.0 9.0 0.00 0.06 0.01 99 1008.8
20190223125504 52 242 1.0 5.0 0.00 0.06 0.01 99 1008.8
20190223125404 52 245 1.0 5.0 0.00 0.06 0.01 99 1008.8
20190223125304 52 243 1.0 5.0 0.00 0.06 0.01 99 1008.8
20190223125204 52 244 1.0 5.0 0.00 0.06 0.01 99 1008.9
20190223125103 52 243 1.0 3.0 0.00 0.06 0.01 99 1008.9
20190223125004 52 238 1.0 3.0 0.00 0.06 0.01 99 1008.9
20190223124904 52 240 1.0 3.0 0.00 0.06 0.01 99 1008.9
20190223124804 52 240 1.0 3.0 0.00 0.06 0.01 99 1008.8
20190223124704 52 241 1.0 3.0 0.00 0.06 0.01 99 1008.7
20190223124605 51 241 1.0 3.0 0.00 0.06 0.01 99 1008.9
20190223124504 51 244 0.0 3.0 0.00 0.06 0.01 99 1008.8
20190223124405 51 243 0.0 3.0 0.01 0.06 0.01 99 1008.9
20190223124304 51 250 0.0 2.0 0.01 0.06 0.01 99 1008.9
20190223124204 51 232 0.0 2.0 0.01 0.06 0.01 99 1008.9
20190223124104 51 235 0.0 2.0 0.01 0.06 0.01 99 1008.9
20190223124004 51 236 0.0 2.0 0.01 0.06 0.01 99 1008.9
20190223123904 51 242 0.0 2.0 0.01 0.06 0.01 99 1008.9
20190223123804 51 257 0.0 4.0 0.01 0.06 0.01 99 1008.7
20190223123704 51 258 0.0 4.0 0.01 0.06 0.01 99 1008.8
20190223123604 51 258 0.0 4.0 0.01 0.06 0.01 99 1008.8
20190223123504 51 258 0.0 4.0 0.01 0.06 0.01 99 1008.7
20190223123404 51 259 0.0 4.0 0.01 0.06 0.01 99 1008.7
20190223123304 51 258 0.0 4.0 0.01 0.06 0.01 99 1008.7
20190223123205 51 266 0.0 4.0 0.01 0.06 0.01 99 1008.7
20190223123104 51 266 1.0 4.0 0.01 0.06 0.01 99 1008.7
20190223123004 51 266 1.0 4.0 0.01 0.06 0.01 99 1008.7
20190223122904 51 261 0.0 4.0 0.01 0.06 0.01 99 1008.7
20190223122804 51 252 0.0 3.0 0.01 0.06 0.01 99 1008.8
20190223122704 51 252 0.0 3.0 0.01 0.06 0.01 99 1008.9
20190223122604 51 252 0.0 3.0 0.01 0.06 0.01 99 1008.9
20190223122504 51 252 0.0 3.0 0.01 0.06 0.01 99 1008.8
20190223122404 51 248 0.0 3.0 0.01 0.06 0.01 99 1008.8
20190223122304 51 251 0.0 3.0 0.01 0.06 0.01 99 1008.6
20190223122204 51 251 0.0 3.0 0.01 0.06 0.01 99 1008.6
20190223122103 51 245 0.0 3.0 0.01 0.06 0.01 99 1008.5
20190223122004 51 230 0.0 2.0 0.01 0.06 0.01 99 1008.6
20190223121904 51 223 0.0 2.0 0.01 0.06 0.01 99 1008.4
20190223121804 51 225 0.0 2.0 0.01 0.06 0.01 98 1008.2
20190223121704 51 215 0.0 2.0 0.01 0.06 0.01 98 1008.3
20190223121605 51 208 0.0 2.0 0.01 0.06 0.01 98 1008.2
20190223121504 51 196 0.0 2.0 0.01 0.06 0.01 98 1008.3
20190223121404 51 186 1.0 2.0 0.01 0.06 0.01 98 1008.3
20190223121304 51 170 1.0 4.0 0.01 0.06 0.01 98 1008.3
20190223121204 51 167 1.0 4.0 0.01 0.06 0.01 99 1008.3
20190223121103 51 170 1.0 4.0 0.01 0.06 0.01 98 1008.3
20190223121005 51 169 1.0 4.0 0.01 0.06 0.01 98 1008.2
20190223120904 51 175 1.0 4.0 0.01 0.06 0.01 98 1008.1
20190223120804 51 185 1.0 4.0 0.01 0.06 0.01 98 1008.1
20190223120704 51 195 1.0 4.0 0.01 0.06 0.01 98 1008.1
20190223120604 51 212 2.0 4.0 0.01 0.06 0.01 98 1008.0
20190223120504 51 243 2.0 6.0 0.01 0.06 0.01 98 1008.0
20190223120403 51 259 2.0 6.0 0.01 0.06 0.01 98 1008.1
20190223120304 51 270 2.0 6.0 0.01 0.06 0.01 98 1008.3
20190223120204 51 273 2.0 6.0 0.01 0.06 0.01 99 1008.3
20190223120104 51 275 4.0 6.0 0.01 0.06 0.01 98 1008.5
20190223120004 51 277 4.0 6.0 0.01 0.06 0.01 98 1008.6
20190223115904 51 278 4.0 6.0 0.01 0.06 0.01 98 1008.8
20190223115804 51 277 4.0 7.0 0.01 0.06 0.01 98 1008.9
20190223115704 51 277 4.0 7.0 0.01 0.06 0.01 98 1008.8
20190223115604 51 278 4.0 7.0 0.01 0.06 0.01 98 1008.7
20190223115504 51 277 4.0 7.0 0.01 0.06 0.01 98 1008.7
20190223115405 51 277 4.0 7.0 0.01 0.06 0.01 98 1008.6
20190223115304 51 277 4.0 7.0 0.01 0.06 0.01 98 1008.6
20190223115204 51 277 4.0 7.0 0.01 0.06 0.01 98 1008.6
20190223115104 51 277 4.0 7.0 0.01 0.06 0.01 98 1008.6
20190223115004 51 276 4.0 7.0 0.01 0.06 0.01 98 1008.6
20190223114904 51 275 2.0 7.0 0.01 0.06 0.01 98 1008.5
20190223114804 50 274 2.0 7.0 0.01 0.06 0.01 98 1008.5
20190223114705 50 274 2.0 7.0 0.01 0.06 0.01 98 1008.5
20190223114604 50 272 1.0 7.0 0.01 0.06 0.01 98 1008.5
20190223114504 50 270 1.0 7.0 0.00 0.04 0.00 98 1008.5
20190223114404 50 266 0.0 6.0 0.00 0.04 0.00 98 1008.4
20190223114304 50 255 0.0 5.0 0.00 0.04 0.00 98 1008.2
20190223114204 50 236 0.0 3.0 0.00 0.04 0.00 98 1008.1
20190223114105 50 245 0.0 3.0 0.00 0.04 0.00 98 1008.0
20190223114004 50 245 0.0 3.0 0.00 0.04 0.00 98 1008.0
20190223113905 50 246 0.0 3.0 0.00 0.04 0.00 98 1007.8
20190223113804 50 258 1.0 4.0 0.00 0.04 0.00 98 1007.7
20190223113704 50 264 1.0 5.0 0.00 0.04 0.00 98 1007.8
20190223113604 50 273 1.0 5.0 0.00 0.04 0.00 98 1007.9
20190223113504 50 274 2.0 5.0 0.00 0.04 0.00 98 1007.9
20190223113404 50 277 2.0 5.0 0.00 0.04 0.00 98 1008.0
20190223113304 50 278 2.0 6.0 0.00 0.04 0.00 98 1008.2
20190223113204 50 281 4.0 6.0 0.00 0.04 0.00 98 1008.2
20190223113104 50 281 4.0 6.0 0.00 0.04 0.00 98 1008.2
20190223113004 50 282 4.0 6.0 0.00 0.04 0.00 98 1008.2
20190223112904 50 283 5.0 6.0 0.00 0.04 0.00 98 1008.2
20190223112805 50 283 5.0 6.0 0.00 0.04 0.00 98 1008.3
20190223112704 50 283 5.0 6.0 0.00 0.04 0.00 98 1008.2
20190223112604 50 283 4.0 6.0 0.00 0.04 0.00 98 1008.1
20190223112505 50 283 4.0 6.0 0.00 0.04 0.00 98 1008.1
20190223112404 50 282 4.0 6.0 0.00 0.04 0.00 98 1008.1
20190223112304 50 282 4.0 6.0 0.00 0.04 0.00 98 1008.1
20190223112204 50 282 2.0 6.0 0.00 0.04 0.00 98 1008.1
20190223112104 50 282 2.0 6.0 0.00 0.04 0.00 98 1008.0
20190223112004 50 281 1.0 5.0 0.00 0.04 0.00 98 1008.0
20190223111904 50 280 1.0 5.0 0.00 0.04 0.00 98 1008.0
20190223111804 50 279 1.0 5.0 0.00 0.04 0.00 98 1007.9
20190223111704 50 278 0.0 3.0 0.00 0.04 0.00 98 1007.8
20190223111604 50 280 0.0 3.0 0.00 0.04 0.00 98 1007.7
20190223111504 50 286 0.0 2.0 0.00 0.04 0.00 98 1007.6
20190223111404 50 0 0.0 0.0 0.00 0.04 0.00 98 1007.6
20190223111304 50 0 0.0 0.0 0.00 0.04 0.00 98 1007.5
20190223111204 50 0 0.0 0.0 0.00 0.04 0.00 98 1007.4
20190223111105 50 0 0.0 0.0 0.00 0.04 0.00 98 1007.4
20190223111004 50 0 0.0 0.0 0.00 0.04 0.00 98 1007.3
20190223110904 50 0 0.0 0.0 0.00 0.04 0.00 98 1007.3
20190223110804 50 0 0.0 0.0 0.00 0.04 0.00 98 1007.2
20190223110704 50 0 0.0 0.0 0.00 0.04 0.00 98 1007.2
20190223110604 50 0 0.0 0.0 0.00 0.04 0.00 98 1007.2
20190223110505 50 0 0.0 0.0 0.00 0.04 0.00 98 1007.1
20190223110404 50 0 0.0 0.0 0.00 0.04 0.00 98 1007.1
20190223110304 50 0 0.0 0.0 0.00 0.04 0.00 98 1007.2
20190223110203 50 0 0.0 0.0 0.00 0.04 0.00 98 1007.1
20190223110105 50 0 0.0 0.0 0.00 0.04 0.00 98 1007.1
20190223110004 50 0 0.0 0.0 0.00 0.04 0.00 98 1007.0
20190223105904 50 0 0.0 0.0 0.00 0.04 0.00 98 1006.9
20190223105804 50 0 0.0 0.0 0.00 0.04 0.00 98 1006.9
20190223105704 50 0 0.0 0.0 0.00 0.04 0.00 98 1007.0
20190223105604 50 0 0.0 0.0 0.00 0.04 0.00 98 1007.0
20190223105504 50 0 0.0 0.0 0.00 0.04 0.00 98 1007.1
20190223105405 50 0 0.0 0.0 0.00 0.04 0.00 98 1007.1
20190223105304 50 0 0.0 0.0 0.00 0.04 0.00 98 1007.1
20190223105204 50 0 0.0 0.0 0.00 0.04 0.00 98 1007.0
20190223105104 50 0 0.0 0.0 0.00 0.04 0.00 98 1006.9
20190223105004 50 0 0.0 0.0 0.00 0.04 0.00 98 1006.9
20190223104905 50 0 0.0 0.0 0.00 0.04 0.00 98 1007.0
20190223104804 50 0 0.0 0.0 0.00 0.04 0.00 98 1007.0
20190223104704 50 0 0.0 0.0 0.00 0.04 0.00 98 1007.0
20190223104605 50 0 0.0 0.0 0.00 0.04 0.00 98 1007.1
20190223104505 50 0 0.0 0.0 0.00 0.04 0.00 98 1007.1
20190223104404 50 0 0.0 0.0 0.00 0.04 0.00 98 1007.1
20190223104304 50 223 0.0 1.0 0.00 0.04 0.00 98 1007.3
20190223104204 50 224 0.0 1.0 0.00 0.04 0.00 98 1007.3
20190223104105 50 224 0.0 1.0 0.00 0.04 0.00 98 1007.3
20190223104005 50 224 0.0 1.0 0.00 0.04 0.00 98 1007.3
20190223103905 50 224 0.0 1.0 0.00 0.04 0.00 98 1007.2
20190223103804 50 224 0.0 1.0 0.00 0.04 0.00 98 1007.3
20190223103704 50 224 0.0 1.0 0.00 0.04 0.00 98 1007.3
20190223103604 50 224 0.0 1.0 0.00 0.04 0.00 98 1007.4
20190223103503 50 224 0.0 1.0 0.00 0.04 0.00 98 1007.4
20190223103405 50 224 0.0 1.0 0.00 0.04 0.00 98 1007.5
20190223103304 50 224 0.0 1.0 0.00 0.04 0.00 98 1007.5
20190223103204 50 223 0.0 1.0 0.00 0.04 0.00 98 1007.5
20190223103104 50 0 0.0 0.0 0.00 0.04 0.00 98 1007.4
20190223103004 50 0 0.0 0.0 0.00 0.04 0.00 98 1007.5
20190223102903 50 0 0.0 0.0 0.00 0.04 0.00 98 1007.5
20190223102804 50 225 0.0 1.0 0.00 0.04 0.00 98 1007.6
20190223102704 50 225 0.0 1.0 0.00 0.04 0.00 98 1007.5
20190223102604 50 225 0.0 1.0 0.00 0.04 0.00 98 1007.5
20190223102504 50 225 0.0 1.0 0.00 0.04 0.00 98 1007.4
20190223102404 50 225 0.0 1.0 0.00 0.04 0.00 98 1007.5
20190223102304 50 225 0.0 1.0 0.00 0.04 0.00 98 1007.6
20190223102204 50 225 0.0 1.0 0.00 0.04 0.00 98 1007.6
20190223102104 50 225 0.0 1.0 0.00 0.04 0.00 98 1007.6
20190223102004 50 224 0.0 1.0 0.00 0.04 0.00 98 1007.6
20190223101904 50 224 0.0 1.0 0.00 0.04 0.00 98 1007.6
20190223101804 50 232 0.0 1.0 0.00 0.04 0.00 98 1007.6
20190223101705 50 232 0.0 1.0 0.00 0.04 0.00 98 1007.6
20190223101604 50 232 0.0 1.0 0.00 0.04 0.00 98 1007.6
20190223101504 50 232 0.0 1.0 0.00 0.04 0.00 98 1007.5
20190223101404 50 232 0.0 1.0 0.00 0.04 0.00 98 1007.4
20190223101304 50 232 0.0 1.0 0.00 0.04 0.00 98 1007.5
20190223101203 50 232 0.0 1.0 0.00 0.04 0.00 98 1007.5
20190223101104 50 244 0.0 1.0 0.00 0.04 0.00 98 1007.6
20190223101005 50 254 0.0 1.0 0.00 0.04 0.00 98 1007.6
20190223100904 50 254 0.0 1.0 0.00 0.04 0.00 98 1007.6
20190223100804 50 267 0.0 1.0 0.00 0.04 0.00 98 1007.6
20190223100704 50 267 0.0 1.0 0.00 0.04 0.00 98 1007.5
20190223100604 50 235 0.0 1.0 0.00 0.04 0.00 98 1007.4
20190223100504 50 235 0.0 1.0 0.00 0.04 0.00 98 1007.4
20190223100404 50 235 0.0 1.0 0.00 0.04 0.00 98 1007.4
20190223100304 50 235 0.0 1.0 0.00 0.04 0.00 98 1007.4
20190223100204 50 235 0.0 1.0 0.00 0.04 0.00 98 1007.3
20190223100104 50 203 0.0 1.0 0.00 0.04 0.00 98 1007.4
20190223100005 50 203 0.0 1.0 0.00 0.04 0.00 98 1007.4
20190223095905 50 203 0.0 1.0 0.00 0.04 0.00 98 1007.5
20190223095804 50 203 0.0 1.0 0.00 0.04 0.00 98 1007.4
20190223095704 50 203 0.0 1.0 0.00 0.04 0.00 98 1007.3
20190223095603 50 0 0.0 0.0 0.00 0.04 0.00 98 1007.3
20190223095505 50 0 0.0 0.0 0.00 0.04 0.00 98 1007.3
20190223095404 50 0 0.0 0.0 0.00 0.04 0.00 98 1007.2
20190223095304 50 0 0.0 0.0 0.00 0.04 0.00 98 1007.3
20190223095204 50 0 0.0 0.0 0.00 0.04 0.00 98 1007.3
20190223095104 50 0 0.0 0.0 0.00 0.04 0.00 98 1007.3
20190223095004 50 0 0.0 0.0 0.00 0.04 0.00 98 1007.1
20190223094904 50 0 0.0 0.0 0.00 0.04 0.00 98 1007.0
20190223094804 50 0 0.0 0.0 0.00 0.04 0.00 98 1007.0
20190223094704 50 0 0.0 0.0 0.00 0.04 0.00 98 1007.0
20190223094605 50 0 0.0 0.0 0.00 0.04 0.00 98 1007.0
20190223094504 50 0 0.0 0.0 0.00 0.04 0.00 98 1006.9
20190223094405 50 0 0.0 0.0 0.00 0.04 0.00 98 1006.9
20190223094304 50 0 0.0 0.0 0.00 0.04 0.00 98 1006.9
20190223094204 50 0 0.0 0.0 0.00 0.04 0.00 98 1007.0
20190223094105 50 0 0.0 0.0 0.00 0.04 0.00 98 1007.1
20190223094005 50 0 0.0 0.0 0.00 0.04 0.00 98 1007.1
20190223093904 50 0 0.0 0.0 0.00 0.04 0.00 98 1007.0
20190223093804 50 0 0.0 0.0 0.00 0.04 0.00 98 1007.0
20190223093704 50 0 0.0 0.0 0.00 0.04 0.00 98 1007.0
20190223093604 50 0 0.0 0.0 0.00 0.04 0.00 98 1007.0
20190223093504 50 130 0.0 1.0 0.00 0.04 0.00 98 1006.9
20190223093404 50 142 0.0 2.0 0.00 0.04 0.00 98 1006.9
20190223093304 50 122 1.0 5.0 0.00 0.04 0.00 98 1006.9
20190223093204 50 118 1.0 5.0 0.00 0.04 0.00 98 1006.9
20190223093104 50 119 1.0 5.0 0.00 0.04 0.00 98 1006.8
20190223093004 50 119 1.0 5.0 0.00 0.04 0.00 98 1006.8
20190223092905 50 118 1.0 5.0 0.00 0.04 0.00 98 1006.8
20190223092804 50 115 1.0 5.0 0.00 0.04 0.00 98 1006.7
20190223092704 50 114 1.0 5.0 0.00 0.04 0.00 98 1006.9
20190223092604 50 115 2.0 5.0 0.00 0.04 0.00 98 1006.9
20190223092504 50 111 2.0 5.0 0.00 0.04 0.00 98 1006.8
20190223092404 50 105 2.0 5.0 0.00 0.04 0.00 98 1006.7
20190223092304 50 105 2.0 4.0 0.00 0.04 0.00 98 1006.8
20190223092204 50 104 2.0 4.0 0.00 0.04 0.00 98 1006.9
20190223092104 50 102 2.0 4.0 0.00 0.04 0.00 98 1006.9
20190223092004 50 101 4.0 4.0 0.00 0.04 0.00 98 1006.7
20190223091904 50 101 4.0 4.0 0.00 0.04 0.00 98 1006.6
20190223091804 50 101 4.0 4.0 0.00 0.04 0.00 98 1006.8
20190223091704 50 101 2.0 4.0 0.00 0.04 0.00 98 1006.8
20190223091604 50 99 2.0 4.0 0.00 0.04 0.00 98 1006.7
20190223091504 50 98 2.0 4.0 0.00 0.04 0.00 98 1006.7
20190223091404 50 99 2.0 4.0 0.00 0.04 0.00 98 1006.8
20190223091305 50 96 2.0 4.0 0.00 0.04 0.00 98 1006.7
20190223091204 50 96 2.0 4.0 0.00 0.04 0.00 98 1006.7
20190223091104 50 98 2.0 4.0 0.00 0.04 0.00 98 1006.6
20190223091004 50 100 2.0 4.0 0.00 0.04 0.00 98 1006.7
20190223090904 50 99 2.0 4.0 0.00 0.04 0.00 98 1006.8
20190223090805 50 100 2.0 4.0 0.00 0.04 0.00 98 1006.9
20190223090704 50 101 2.0 4.0 0.00 0.04 0.00 98 1006.9
20190223090604 50 102 4.0 4.0 0.00 0.04 0.00 98 1006.8
20190223090504 50 105 4.0 5.0 0.00 0.04 0.00 98 1006.7
20190223090404 50 107 4.0 5.0 0.00 0.04 0.00 98 1006.8
20190223090305 50 107 4.0 5.0 0.00 0.04 0.00 98 1006.9
20190223090204 50 104 4.0 5.0 0.00 0.04 0.00 98 1006.9
20190223090104 50 103 4.0 5.0 0.00 0.04 0.00 98 1006.7
20190223090004 50 102 4.0 5.0 0.00 0.04 0.00 98 1006.7
20190223085905 50 103 4.0 5.0 0.00 0.04 0.00 98 1006.8
20190223085804 50 102 4.0 5.0 0.00 0.04 0.00 98 1006.8
20190223085704 50 100 4.0 5.0 0.00 0.04 0.00 98 1006.8
20190223085604 50 99 2.0 5.0 0.00 0.04 0.00 98 1006.7
20190223085504 50 98 2.0 5.0 0.00 0.04 0.00 98 1006.7
20190223085404 50 96 2.0 5.0 0.00 0.04 0.00 98 1006.5
20190223085304 50 98 2.0 5.0 0.00 0.04 0.00 98 1006.7
20190223085206 50 100 2.0 4.0 0.00 0.04 0.00 98 1006.9
20190223085104 50 100 2.0 4.0 0.00 0.04 0.00 98 1006.8
20190223085004 50 102 2.0 4.0 0.00 0.04 0.00 98 1006.8
20190223084904 50 103 2.0 4.0 0.00 0.04 0.00 98 1006.7
20190223084804 50 105 2.0 4.0 0.00 0.04 0.00 98 1006.8
20190223084704 50 108 2.0 4.0 0.00 0.04 0.00 98 1006.9
20190223084604 50 108 4.0 4.0 0.00 0.04 0.00 98 1006.9
20190223084504 50 110 4.0 4.0 0.00 0.04 0.00 98 1006.9
20190223084404 50 112 4.0 4.0 0.00 0.04 0.00 98 1006.9
20190223084304 50 113 2.0 4.0 0.00 0.04 0.00 98 1006.9
20190223084204 50 116 2.0 4.0 0.00 0.04 0.00 98 1007.0
20190223084104 50 118 2.0 4.0 0.00 0.04 0.00 98 1007.0
20190223084004 50 119 2.0 4.0 0.00 0.04 0.00 98 1007.1
20190223083905 50 120 2.0 4.0 0.00 0.04 0.00 98 1007.1
20190223083804 50 121 2.0 3.0 0.00 0.04 0.00 98 1007.2
20190223083704 50 121 2.0 3.0 0.00 0.04 0.00 98 1007.3
20190223083604 50 121 2.0 3.0 0.00 0.04 0.00 98 1007.3
20190223083504 50 121 2.0 3.0 0.00 0.04 0.00 98 1007.3
20190223083404 50 120 2.0 3.0 0.00 0.04 0.00 98 1007.3
20190223083305 50 120 2.0 4.0 0.00 0.04 0.00 98 1007.4
20190223083204 50 120 2.0 4.0 0.00 0.04 0.00 98 1007.4
20190223083104 50 120 2.0 4.0 0.00 0.04 0.00 98 1007.4
20190223083004 50 121 2.0 4.0 0.00 0.04 0.00 98 1007.4
20190223082904 50 122 2.0 4.0 0.00 0.04 0.00 98 1007.4
20190223082804 50 123 2.0 4.0 0.00 0.04 0.00 98 1007.4
20190223082704 50 123 2.0 4.0 0.00 0.04 0.00 98 1007.4
20190223082604 50 123 2.0 4.0 0.00 0.04 0.00 98 1007.4
20190223082504 50 123 2.0 4.0 0.00 0.04 0.00 98 1007.4
20190223082404 50 123 2.0 4.0 0.00 0.04 0.00 98 1007.4
20190223082304 50 123 2.0 4.0 0.00 0.04 0.00 98 1007.4
20190223082204 50 123 2.0 4.0 0.00 0.04 0.00 98 1007.5
20190223082104 50 122 1.0 4.0 0.00 0.04 0.00 98 1007.4
20190223082004 50 121 1.0 4.0 0.00 0.04 0.00 98 1007.5
20190223081904 50 120 1.0 4.0 0.00 0.04 0.00 98 1007.4
20190223081804 50 119 1.0 4.0 0.00 0.04 0.00 98 1007.4
20190223081704 50 118 1.0 4.0 0.00 0.04 0.00 98 1007.4
20190223081605 50 117 0.0 3.0 0.00 0.04 0.00 98 1007.3
20190223081505 50 114 0.0 3.0 0.00 0.04 0.00 98 1007.4
20190223081404 50 106 0.0 2.0 0.00 0.04 0.00 98 1007.3
20190223081304 50 115 0.0 3.0 0.00 0.04 0.00 98 1007.3
20190223081204 50 117 0.0 3.0 0.00 0.04 0.00 98 1007.4
20190223081105 50 113 1.0 3.0 0.00 0.04 0.00 98 1007.4
20190223081004 50 109 1.0 3.0 0.00 0.04 0.00 98 1007.4
20190223080904 50 105 1.0 3.0 0.00 0.04 0.00 98 1007.4
20190223080805 50 102 1.0 3.0 0.00 0.04 0.00 98 1007.4
20190223080704 50 100 1.0 3.0 0.00 0.04 0.00 98 1007.4
20190223080605 50 99 2.0 3.0 0.00 0.04 0.00 98 1007.5
20190223080504 50 97 2.0 3.0 0.00 0.04 0.00 98 1007.4
20190223080404 50 95 2.0 3.0 0.00 0.04 0.00 98 1007.5
20190223080304 50 91 2.0 4.0 0.00 0.04 0.00 98 1007.5
20190223080204 50 89 2.0 4.0 0.00 0.04 0.00 98 1007.5
20190223080104 50 87 2.0 4.0 0.00 0.04 0.00 98 1007.4
20190223080005 50 84 2.0 4.0 0.00 0.04 0.00 98 1007.4
20190223075904 50 84 2.0 4.0 0.00 0.04 0.00 98 1007.5
20190223075804 50 85 2.0 4.0 0.00 0.04 0.00 98 1007.5
20190223075704 50 87 2.0 4.0 0.00 0.04 0.00 98 1007.6
20190223075605 50 87 2.0 4.0 0.00 0.04 0.00 98 1007.6
20190223075505 50 87 2.0 4.0 0.00 0.04 0.00 98 1007.5
20190223075404 50 87 1.0 4.0 0.00 0.04 0.00 98 1007.5
20190223075304 50 90 1.0 4.0 0.00 0.04 0.00 98 1007.6
20190223075204 49 91 1.0 4.0 0.00 0.04 0.00 98 1007.6
20190223075104 49 96 1.0 4.0 0.00 0.04 0.00 98 1007.7
20190223075004 49 110 0.0 3.0 0.00 0.04 0.00 98 1007.7
20190223074904 49 136 0.0 2.0 0.00 0.04 0.00 98 1007.7
20190223074804 49 148 0.0 2.0 0.00 0.04 0.00 98 1007.8
20190223074704 49 149 0.0 1.0 0.00 0.04 0.00 98 1007.9
20190223074604 49 0 0.0 0.0 0.00 0.04 0.00 98 1007.9
20190223074504 49 0 0.0 0.0 0.00 0.04 0.00 98 1008.0
20190223074404 49 0 0.0 0.0 0.00 0.04 0.00 98 1008.0
20190223074305 49 125 0.0 1.0 0.00 0.04 0.00 98 1008.1
20190223074204 49 125 0.0 1.0 0.00 0.04 0.00 98 1008.2
20190223074104 49 125 0.0 1.0 0.00 0.04 0.00 98 1008.2
20190223074004 49 125 0.0 1.0 0.00 0.04 0.00 98 1008.2
20190223073903 49 125 0.0 1.0 0.00 0.04 0.00 98 1008.1
20190223073804 49 125 0.0 1.0 0.00 0.04 0.00 98 1008.1
20190223073704 49 118 0.0 1.0 0.00 0.04 0.00 98 1008.2
20190223073604 49 118 0.0 1.0 0.00 0.04 0.00 98 1008.2
20190223073504 49 118 0.0 1.0 0.00 0.04 0.00 98 1008.3
20190223073404 49 118 0.0 1.0 0.00 0.04 0.00 98 1008.2
20190223073304 49 83 0.0 2.0 0.00 0.04 0.00 98 1008.1
20190223073204 49 77 0.0 2.0 0.00 0.04 0.00 98 1008.1
20190223073104 49 76 0.0 2.0 0.00 0.04 0.00 98 1008.1
20190223073004 49 75 1.0 2.0 0.00 0.04 0.00 98 1008.1
20190223072903 49 75 1.0 2.0 0.00 0.04 0.00 98 1008.1
20190223072804 49 75 1.0 2.0 0.00 0.04 0.00 98 1008.0
20190223072704 49 75 1.0 2.0 0.00 0.04 0.00 98 1008.0
20190223072604 49 77 1.0 2.0 0.00 0.04 0.00 98 1008.0
20190223072504 49 81 1.0 3.0 0.00 0.04 0.00 98 1007.9
20190223072404 49 84 2.0 3.0 0.00 0.04 0.00 98 1007.9
20190223072304 49 88 2.0 3.0 0.00 0.04 0.00 98 1007.8
20190223072204 49 90 2.0 3.0 0.00 0.04 0.00 98 1007.8
20190223072104 49 91 2.0 3.0 0.00 0.04 0.00 98 1007.7
20190223072005 49 94 2.0 3.0 0.00 0.04 0.00 98 1007.7
20190223071904 49 97 2.0 3.0 0.00 0.04 0.00 98 1007.7
20190223071804 49 101 2.0 3.0 0.00 0.04 0.00 98 1007.7
20190223071704 49 104 2.0 3.0 0.00 0.04 0.00 98 1007.7
20190223071604 49 107 2.0 3.0 0.00 0.04 0.00 98 1007.8
20190223071504 49 108 2.0 3.0 0.00 0.04 0.00 98 1007.9
20190223071405 49 108 2.0 3.0 0.00 0.04 0.00 98 1007.9
20190223071304 49 108 1.0 3.0 0.00 0.04 0.00 98 1007.9
20190223071204 49 108 1.0 3.0 0.00 0.04 0.00 98 1007.9
20190223071104 49 109 1.0 3.0 0.00 0.04 0.00 98 1007.9
20190223071005 49 110 1.0 3.0 0.00 0.04 0.00 98 1008.0
20190223070904 49 109 1.0 2.0 0.00 0.04 0.00 98 1008.0
20190223070804 49 104 1.0 2.0 0.00 0.04 0.00 98 1007.9
20190223070704 49 99 1.0 2.0 0.00 0.04 0.00 98 1007.9
20190223070604 49 95 1.0 2.0 0.00 0.04 0.00 98 1007.9
20190223070504 49 93 1.0 2.0 0.00 0.04 0.00 98 1007.9
20190223070405 49 90 1.0 2.0 0.00 0.04 0.00 98 1007.9
20190223070304 49 87 1.0 2.0 0.00 0.04 0.00 98 1007.9
20190223070204 49 83 1.0 2.0 0.00 0.04 0.00 98 1007.9
20190223070104 49 84 1.0 2.0 0.00 0.04 0.00 98 1007.8
20190223070004 49 84 1.0 2.0 0.00 0.04 0.00 98 1007.9
20190223065905 49 85 1.0 2.0 0.00 0.04 0.00 98 1007.8
20190223065804 49 87 1.0 2.0 0.00 0.04 0.00 98 1007.8
20190223065704 49 90 1.0 2.0 0.00 0.04 0.00 98 1007.8
20190223065604 49 92 1.0 2.0 0.00 0.04 0.00 98 1007.9
20190223065504 49 92 1.0 2.0 0.00 0.04 0.00 98 1007.9
20190223065405 49 95 1.0 2.0 0.00 0.04 0.00 98 1007.9
20190223065304 49 100 1.0 3.0 0.00 0.04 0.00 98 1008.0
20190223065204 49 101 1.0 3.0 0.00 0.04 0.00 98 1008.0
20190223065104 49 102 1.0 3.0 0.00 0.04 0.00 98 1008.0
20190223065004 49 103 1.0 3.0 0.00 0.04 0.00 98 1008.0
20190223064904 49 106 1.0 3.0 0.00 0.04 0.00 98 1008.1
20190223064804 49 106 1.0 3.0 0.00 0.04 0.00 98 1008.1
20190223064704 49 106 1.0 3.0 0.00 0.04 0.00 98 1008.1
20190223064604 49 106 1.0 3.0 0.00 0.04 0.00 98 1008.1
20190223064504 49 103 1.0 3.0 0.00 0.04 0.00 98 1008.1
20190223064405 49 100 1.0 3.0 0.00 0.04 0.00 98 1008.1
20190223064304 49 97 1.0 3.0 0.00 0.04 0.00 98 1008.1
20190223064204 49 95 1.0 4.0 0.00 0.04 0.00 98 1008.1
20190223064104 49 96 1.0 4.0 0.00 0.04 0.00 98 1008.1
20190223064004 49 95 1.0 4.0 0.00 0.04 0.00 98 1008.1
20190223063905 49 97 1.0 4.0 0.00 0.04 0.00 98 1008.2
20190223063804 49 98 2.0 4.0 0.00 0.04 0.00 98 1008.2
20190223063704 49 101 2.0 4.0 0.00 0.04 0.00 98 1008.2
20190223063604 49 104 2.0 4.0 0.00 0.04 0.00 98 1008.2
20190223063504 49 107 2.0 4.0 0.00 0.04 0.00 98 1008.3
20190223063405 49 107 2.0 4.0 0.00 0.04 0.00 98 1008.3
20190223063304 49 108 2.0 4.0 0.00 0.04 0.00 98 1008.3
20190223063204 49 111 2.0 3.0 0.00 0.04 0.00 98 1008.3
20190223063104 49 113 2.0 3.0 0.00 0.04 0.00 98 1008.3
20190223063004 49 117 2.0 3.0 0.00 0.04 0.00 98 1008.4
20190223062904 49 118 2.0 3.0 0.00 0.04 0.00 98 1008.4
20190223062804 49 119 2.0 3.0 0.00 0.04 0.00 98 1008.5
20190223062704 49 119 2.0 3.0 0.00 0.04 0.00 98 1008.5
20190223062604 49 119 1.0 3.0 0.00 0.04 0.00 98 1008.5
20190223062505 49 119 1.0 3.0 0.00 0.04 0.00 98 1008.4
20190223062405 49 122 1.0 3.0 0.00 0.04 0.00 98 1008.4
20190223062304 49 123 1.0 3.0 0.00 0.04 0.00 98 1008.5
20190223062204 49 124 1.0 3.0 0.00 0.04 0.00 98 1008.5
20190223062104 49 122 1.0 3.0 0.00 0.04 0.00 98 1008.7
20190223062005 49 120 1.0 3.0 0.00 0.04 0.00 98 1008.7
20190223061904 49 119 1.0 3.0 0.00 0.04 0.00 98 1008.7
20190223061804 49 119 1.0 3.0 0.00 0.04 0.00 98 1008.7
20190223061705 49 117 1.0 3.0 0.00 0.04 0.00 98 1008.7
20190223061604 49 115 1.0 3.0 0.00 0.04 0.00 98 1008.7
20190223061504 49 114 2.0 3.0 0.00 0.04 0.00 98 1008.7
20190223061405 49 113 2.0 3.0 0.00 0.04 0.00 98 1008.8
20190223061304 49 111 2.0 3.0 0.00 0.04 0.00 98 1008.8
20190223061205 49 110 2.0 3.0 0.00 0.04 0.00 98 1008.7
20190223061104 49 108 2.0 3.0 0.00 0.04 0.00 98 1008.7
20190223061005 49 106 2.0 3.0 0.00 0.04 0.00 98 1008.8
20190223060904 49 104 2.0 3.0 0.00 0.04 0.00 98 1008.8
20190223060804 49 101 2.0 4.0 0.00 0.04 0.00 98 1008.7
20190223060705 49 99 2.0 4.0 0.00 0.04 0.00 98 1008.7
20190223060605 49 97 2.0 4.0 0.00 0.04 0.00 98 1008.8
20190223060505 49 96 2.0 4.0 0.00 0.04 0.00 98 1008.8
20190223060404 49 95 2.0 4.0 0.00 0.04 0.00 98 1008.8
20190223060304 49 94 2.0 4.0 0.00 0.04 0.00 98 1008.9
20190223060204 49 94 2.0 4.0 0.00 0.04 0.00 98 1008.9
20190223060104 49 93 2.0 4.0 0.00 0.04 0.00 98 1008.9
20190223060015 49 93 2.0 4.0 0.00 0.04 0.00 98 1008.9
20190223055904 49 93 2.0 4.0 0.00 0.04 0.04 98 1008.9
20190223055804 49 94 2.0 4.0 0.00 0.04 0.04 98 1008.9
20190223055704 49 96 2.0 3.0 0.00 0.04 0.04 98 1008.9
20190223055604 49 97 2.0 3.0 0.00 0.04 0.04 98 1009.0
20190223055506 49 100 2.0 3.0 0.00 0.04 0.04 98 1009.1
20190223055404 49 103 2.0 3.0 0.00 0.04 0.04 98 1009.1
20190223055304 49 106 2.0 3.0 0.00 0.04 0.04 98 1009.1
20190223055205 49 107 1.0 3.0 0.00 0.04 0.04 98 1009.2
20190223055105 49 111 1.0 3.0 0.00 0.04 0.04 98 1009.2
20190223055005 49 115 1.0 2.0 0.00 0.04 0.04 98 1009.3
20190223054905 49 120 1.0 2.0 0.00 0.04 0.04 98 1009.3
20190223054804 49 123 1.0 2.0 0.00 0.04 0.04 98 1009.3
20190223054705 49 125 1.0 2.0 0.00 0.04 0.04 98 1009.3
20190223054605 49 127 1.0 2.0 0.00 0.04 0.04 98 1009.3
20190223054505 49 122 1.0 2.0 0.00 0.04 0.04 98 1009.3
20190223054406 49 118 1.0 2.0 0.00 0.04 0.04 98 1009.4
20190223054304 49 115 1.0 2.0 0.00 0.04 0.04 98 1009.4
20190223054205 49 111 1.0 2.0 0.00 0.04 0.04 98 1009.4
20190223054104 49 107 1.0 3.0 0.00 0.04 0.04 98 1009.4
20190223054004 49 104 1.0 3.0 0.00 0.04 0.04 98 1009.4
20190223053904 49 102 1.0 3.0 0.00 0.04 0.04 98 1009.5
20190223053804 49 100 1.0 3.0 0.00 0.04 0.04 98 1009.5
20190223053704 49 97 1.0 3.0 0.00 0.04 0.04 98 1009.5
20190223053604 49 97 1.0 3.0 0.00 0.04 0.04 98 1009.5
20190223053505 49 98 1.0 3.0 0.00 0.04 0.04 98 1009.5
20190223053404 49 96 1.0 3.0 0.00 0.04 0.04 98 1009.5
20190223053304 49 95 1.0 4.0 0.00 0.04 0.04 98 1009.5
20190223053204 49 96 1.0 4.0 0.00 0.04 0.04 98 1009.6
20190223053105 49 100 1.0 4.0 0.00 0.04 0.04 98 1009.6
20190223053004 49 102 1.0 4.0 0.00 0.04 0.04 98 1009.7
20190223052904 49 102 2.0 4.0 0.00 0.04 0.04 98 1009.7
20190223052804 49 104 2.0 4.0 0.00 0.04 0.04 98 1009.7
20190223052704 49 107 2.0 4.0 0.00 0.04 0.04 98 1009.8
20190223052604 49 109 2.0 4.0 0.00 0.04 0.04 98 1009.8
20190223052504 49 111 2.0 4.0 0.00 0.04 0.04 98 1009.9
20190223052404 49 112 2.0 4.0 0.00 0.04 0.04 98 1009.9
20190223052304 49 115 2.0 4.0 0.00 0.04 0.04 98 1009.9
20190223052204 49 114 4.0 4.0 0.00 0.04 0.04 98 1009.9
20190223052104 49 112 4.0 5.0 0.00 0.04 0.04 98 1009.9
20190223052005 49 113 4.0 5.0 0.00 0.04 0.04 98 1009.9
20190223051905 49 113 4.0 5.0 0.00 0.04 0.04 98 1009.9
20190223051804 49 112 4.0 6.0 0.00 0.04 0.04 98 1009.9
20190223051704 49 111 5.0 6.0 0.00 0.04 0.04 98 1009.9
20190223051604 49 110 5.0 6.0 0.00 0.04 0.04 98 1009.8
20190223051504 49 109 5.0 7.0 0.00 0.04 0.04 98 1009.8
20190223051404 49 110 6.0 7.0 0.00 0.04 0.04 98 1009.8
20190223051304 49 110 6.0 7.0 0.00 0.04 0.04 98 1009.8
20190223051205 49 111 6.0 7.0 0.00 0.04 0.04 98 1009.9
20190223051104 49 111 6.0 7.0 0.00 0.04 0.04 98 1009.9
20190223051004 49 111 6.0 7.0 0.00 0.04 0.04 98 1009.9
20190223050904 49 110 6.0 7.0 0.00 0.04 0.04 98 1009.8
20190223050804 49 109 6.0 7.0 0.00 0.04 0.04 98 1009.9
20190223050705 49 108 6.0 7.0 0.00 0.04 0.04 98 1009.9
20190223050604 49 107 6.0 7.0 0.00 0.04 0.04 98 1009.9
20190223050504 49 105 6.0 7.0 0.00 0.04 0.04 98 1009.9
20190223050404 49 105 6.0 7.0 0.00 0.04 0.04 98 1009.9
20190223050305 49 102 6.0 7.0 0.00 0.04 0.04 98 1009.9
20190223050204 49 100 5.0 7.0 0.00 0.04 0.04 98 1009.8
20190223050104 49 99 5.0 7.0 0.00 0.04 0.04 98 1009.9
20190223050004 49 97 5.0 7.0 0.00 0.04 0.04 98 1009.9
20190223045905 49 95 5.0 7.0 0.00 0.04 0.04 98 1009.9
20190223045804 49 95 5.0 7.0 0.00 0.04 0.04 98 1009.9
20190223045704 49 95 5.0 7.0 0.00 0.04 0.04 98 1009.9
20190223045604 49 94 5.0 6.0 0.00 0.04 0.04 98 1009.9
20190223045505 49 95 5.0 6.0 0.00 0.04 0.04 98 1009.9
20190223045404 49 94 5.0 6.0 0.00 0.04 0.04 98 1010.0
20190223045304 49 96 5.0 6.0 0.00 0.04 0.04 98 1010.0
20190223045204 49 95 5.0 6.0 0.00 0.04 0.04 98 1010.0
20190223045104 49 96 5.0 6.0 0.00 0.04 0.04 98 1010.1
20190223045006 49 97 5.0 6.0 0.00 0.04 0.04 98 1010.1
20190223044904 49 99 5.0 6.0 0.00 0.04 0.04 98 1010.1
20190223044804 49 99 5.0 6.0 0.00 0.04 0.04 98 1010.1
20190223044704 49 99 5.0 6.0 0.00 0.04 0.04 98 1010.1
20190223044604 49 101 5.0 6.0 0.00 0.04 0.04 98 1010.1
20190223044504 49 102 4.0 6.0 0.00 0.04 0.04 98 1010.2
20190223044404 49 102 4.0 6.0 0.00 0.04 0.04 98 1010.2
20190223044304 49 101 4.0 6.0 0.00 0.04 0.04 98 1010.2
20190223044205 49 103 4.0 6.0 0.00 0.04 0.04 98 1010.2
20190223044104 49 100 4.0 6.0 0.00 0.04 0.04 98 1010.2
20190223044004 49 99 4.0 6.0 0.00 0.04 0.04 98 1010.2
20190223043904 49 97 4.0 6.0 0.00 0.04 0.04 98 1010.2
20190223043805 49 95 4.0 6.0 0.00 0.04 0.04 98 1010.3
20190223043704 49 94 4.0 6.0 0.00 0.04 0.04 98 1010.3
20190223043604 49 93 4.0 6.0 0.00 0.04 0.04 98 1010.3
20190223043504 49 91 4.0 6.0 0.00 0.04 0.04 98 1010.3
20190223043404 49 90 4.0 6.0 0.00 0.04 0.04 98 1010.2
20190223043304 49 89 4.0 6.0 0.00 0.04 0.04 98 1010.3
20190223043204 49 88 4.0 6.0 0.00 0.04 0.04 98 1010.3
20190223043104 49 88 4.0 5.0 0.00 0.04 0.04 98 1010.3
20190223043004 49 86 4.0 5.0 0.00 0.04 0.04 98 1010.4
20190223042904 49 85 4.0 5.0 0.00 0.04 0.04 98 1010.3
20190223042804 49 85 4.0 5.0 0.00 0.04 0.04 98 1010.4
20190223042704 49 84 4.0 5.0 0.00 0.04 0.04 98 1010.3
20190223042604 49 83 4.0 5.0 0.00 0.04 0.04 98 1010.4
20190223042504 49 84 4.0 5.0 0.00 0.04 0.04 98 1010.4
20190223042405 49 87 4.0 5.0 0.00 0.04 0.04 98 1010.3
20190223042304 49 89 2.0 5.0 0.00 0.04 0.04 98 1010.3
20190223042205 49 89 4.0 5.0 0.00 0.04 0.04 98 1010.4
20190223042104 49 90 4.0 5.0 0.00 0.04 0.04 98 1010.5
20190223042004 49 93 4.0 5.0 0.00 0.04 0.04 98 1010.4
20190223041904 49 94 4.0 5.0 0.00 0.04 0.04 98 1010.5
20190223041804 49 94 4.0 5.0 0.00 0.04 0.04 98 1010.5
20190223041704 49 97 4.0 5.0 0.00 0.04 0.04 98 1010.5
20190223041604 49 100 4.0 5.0 0.00 0.04 0.04 98 1010.6
20190223041504 49 101 4.0 5.0 0.00 0.04 0.04 98 1010.6
20190223041405 49 101 4.0 4.0 0.00 0.04 0.04 98 1010.6
20190223041304 49 103 4.0 5.0 0.00 0.04 0.04 98 1010.6
20190223041204 49 106 4.0 6.0 0.00 0.04 0.04 98 1010.7
20190223041104 49 107 4.0 6.0 0.00 0.04 0.04 98 1010.7
20190223041004 49 108 4.0 6.0 0.00 0.04 0.04 98 1010.6
20190223040905 49 109 4.0 6.0 0.00 0.04 0.04 98 1010.8
20190223040804 49 110 4.0 6.0 0.00 0.04 0.04 98 1010.8
20190223040704 49 110 2.0 6.0 0.00 0.04 0.04 98 1010.9
20190223040604 49 111 2.0 6.0 0.00 0.04 0.04 98 1010.9
20190223040504 49 111 2.0 6.0 0.00 0.04 0.04 98 1010.9
20190223040405 49 112 1.0 6.0 0.00 0.04 0.04 98 1010.9
20190223040304 49 111 1.0 6.0 0.00 0.04 0.04 98 1011.0
20190223040204 49 107 1.0 4.0 0.00 0.04 0.04 98 1011.0
20190223040104 49 103 0.0 4.0 0.00 0.04 0.04 98 1011.0
20190223040005 49 99 0.0 4.0 0.00 0.04 0.04 98 1011.0
20190223035904 49 98 0.0 2.0 0.00 0.04 0.04 98 1011.0
20190223035804 49 0 0.0 0.0 0.00 0.04 0.04 98 1011.1
20190223035704 49 0 0.0 0.0 0.00 0.04 0.04 98 1011.1
20190223035604 49 0 0.0 0.0 0.00 0.04 0.04 98 1011.1
20190223035503 49 0 0.0 0.0 0.00 0.04 0.04 98 1011.1
20190223035405 49 0 0.0 0.0 0.00 0.04 0.04 98 1011.2
20190223035304 49 0 0.0 0.0 0.00 0.04 0.04 98 1011.1
20190223035204 49 0 0.0 0.0 0.00 0.04 0.04 98 1011.2
20190223035104 49 0 0.0 0.0 0.00 0.04 0.04 98 1011.1
20190223035004 49 0 0.0 0.0 0.00 0.04 0.04 98 1011.1
20190223034904 49 0 0.0 0.0 0.00 0.04 0.04 98 1011.2
20190223034805 49 106 0.0 2.0 0.00 0.04 0.04 98 1011.2
20190223034704 49 110 0.0 2.0 0.00 0.04 0.04 98 1011.2
20190223034604 49 111 0.0 2.0 0.00 0.04 0.04 98 1011.2
20190223034504 49 114 1.0 2.0 0.00 0.04 0.04 98 1011.3
20190223034404 49 115 1.0 2.0 0.00 0.04 0.04 98 1011.2
20190223034305 49 115 1.0 2.0 0.00 0.04 0.04 98 1011.2
20190223034204 49 114 1.0 2.0 0.00 0.04 0.04 98 1011.3
20190223034104 49 115 1.0 2.0 0.00 0.04 0.04 98 1011.2
20190223034004 49 113 1.0 2.0 0.00 0.04 0.04 98 1011.3
20190223033905 49 111 1.0 2.0 0.00 0.04 0.04 98 1011.3
20190223033804 49 111 1.0 2.0 0.00 0.04 0.04 98 1011.3
20190223033704 49 110 1.0 2.0 0.00 0.04 0.04 98 1011.4
20190223033604 49 111 1.0 4.0 0.00 0.04 0.04 98 1011.3
20190223033504 49 111 2.0 4.0 0.00 0.04 0.04 98 1011.2
20190223033405 49 110 2.0 4.0 0.00 0.04 0.04 98 1011.2
20190223033304 49 109 2.0 4.0 0.00 0.04 0.04 98 1011.2
20190223033204 49 110 2.0 4.0 0.00 0.04 0.04 98 1011.1
20190223033105 49 110 2.0 4.0 0.00 0.04 0.04 98 1011.1
20190223033020 49 110 2.0 4.0 0.00 0.04 0.04 98 1011.1
20190223032904 49 112 2.0 4.0 0.00 0.04 0.04 98 1011.1
20190223032804 49 113 2.0 4.0 0.00 0.04 0.04 98 1011.2
20190223032704 49 113 2.0 4.0 0.00 0.04 0.04 98 1011.2
20190223032604 49 114 2.0 4.0 0.00 0.04 0.04 98 1011.2
20190223032504 49 115 2.0 4.0 0.00 0.04 0.04 98 1011.2
20190223032404 49 116 2.0 4.0 0.00 0.04 0.04 98 1011.1
20190223032304 49 118 2.0 3.0 0.00 0.04 0.04 98 1011.2
20190223032234 49 118 2.0 3.0 0.00 0.04 0.04 98 1011.2
20190223032105 49 119 2.0 3.0 0.00 0.04 0.04 98 1011.2
20190223032005 49 119 2.0 3.0 0.00 0.04 0.04 98 1011.2
20190223031905 49 118 2.0 3.0 0.00 0.04 0.04 98 1011.2
20190223031805 49 118 2.0 3.0 0.00 0.04 0.04 98 1011.2
20190223031704 49 117 2.0 3.0 0.00 0.04 0.04 98 1011.3
20190223031605 49 117 2.0 3.0 0.00 0.04 0.04 98 1011.3
20190223031504 49 115 2.0 3.0 0.00 0.04 0.04 98 1011.2
20190223031405 49 112 2.0 3.0 0.00 0.04 0.04 98 1011.2
20190223031304 49 111 1.0 3.0 0.00 0.04 0.04 98 1011.2
20190223031204 49 109 1.0 3.0 0.00 0.04 0.04 98 1011.2
20190223031104 49 107 1.0 3.0 0.00 0.04 0.04 98 1011.2
20190223031004 49 106 1.0 3.0 0.00 0.04 0.04 98 1011.2
20190223030903 49 105 1.0 3.0 0.00 0.04 0.04 98 1011.1
20190223030804 49 104 1.0 3.0 0.00 0.04 0.04 98 1011.1
20190223030704 49 103 1.0 3.0 0.00 0.04 0.04 98 1011.2
20190223030604 49 102 1.0 3.0 0.00 0.04 0.04 98 1011.1
20190223030504 49 106 1.0 4.0 0.00 0.04 0.04 98 1011.2
20190223030405 49 112 1.0 4.0 0.00 0.04 0.04 98 1011.2
20190223030304 49 114 1.0 4.0 0.00 0.04 0.04 98 1011.2
20190223030204 49 114 2.0 4.0 0.00 0.04 0.04 98 1011.2
20190223030104 49 114 2.0 4.0 0.00 0.04 0.04 98 1011.3
20190223030003 49 112 2.0 4.0 0.00 0.04 0.04 98 1011.2
20190223025904 49 111 2.0 4.0 0.00 0.04 0.04 98 1011.2
20190223025804 49 109 2.0 4.0 0.00 0.04 0.04 98 1011.1
20190223025704 49 107 2.0 4.0 0.00 0.04 0.04 98 1011.2
20190223025604 49 106 2.0 4.0 0.00 0.04 0.04 98 1011.1
20190223025504 49 103 2.0 4.0 0.00 0.04 0.04 98 1011.1
20190223025405 49 99 2.0 4.0 0.00 0.04 0.04 98 1011.0
20190223025304 49 97 2.0 4.0 0.00 0.04 0.04 98 1011.0
20190223025204 49 96 4.0 4.0 0.00 0.04 0.04 98 1010.9
20190223025105 49 95 4.0 4.0 0.00 0.04 0.04 98 1011.0
20190223025004 49 95 4.0 4.0 0.00 0.04 0.04 98 1011.0
20190223024904 49 95 4.0 4.0 0.00 0.04 0.04 98 1011.0
20190223024804 49 96 4.0 4.0 0.00 0.04 0.04 98 1011.0
20190223024704 49 97 4.0 4.0 0.00 0.04 0.04 98 1011.0
20190223024605 49 97 4.0 5.0 0.00 0.04 0.04 98 1011.0
20190223024504 49 97 4.0 5.0 0.00 0.04 0.04 98 1010.9
20190223024404 49 97 4.0 5.0 0.00 0.04 0.04 98 1011.0
20190223024304 49 99 4.0 5.0 0.00 0.04 0.04 98 1011.0
20190223024204 49 101 4.0 5.0 0.00 0.04 0.04 98 1011.0
20190223024104 49 104 4.0 5.0 0.00 0.04 0.04 98 1011.1
20190223024004 49 105 4.0 5.0 0.00 0.04 0.04 98 1011.1
20190223023904 49 107 4.0 5.0 0.00 0.04 0.04 98 1011.2
20190223023804 49 107 2.0 5.0 0.00 0.04 0.04 98 1011.2
20190223023704 49 108 2.0 5.0 0.00 0.04 0.04 98 1011.2
20190223023604 49 110 2.0 4.0 0.00 0.04 0.04 98 1011.2
20190223023504 49 112 2.0 4.0 0.00 0.04 0.04 98 1011.1
20190223023404 49 116 2.0 4.0 0.00 0.04 0.04 98 1011.2
20190223023304 49 117 2.0 4.0 0.00 0.04 0.04 98 1011.3
20190223023205 49 120 2.0 4.0 0.00 0.04 0.04 98 1011.3
20190223023104 49 121 2.0 3.0 0.00 0.04 0.04 98 1011.2
20190223023004 49 123 2.0 3.0 0.00 0.04 0.04 98 1011.3
20190223022904 49 125 2.0 3.0 0.00 0.04 0.04 98 1011.3
20190223022804 49 126 2.0 3.0 0.00 0.04 0.04 98 1011.2
20190223022704 49 126 2.0 3.0 0.00 0.04 0.04 98 1011.3
20190223022604 49 124 2.0 3.0 0.00 0.04 0.04 98 1011.3
20190223022504 49 122 2.0 4.0 0.00 0.04 0.04 98 1011.4
20190223022404 49 120 2.0 4.0 0.00 0.04 0.04 98 1011.4
20190223022304 49 117 2.0 4.0 0.00 0.04 0.04 98 1011.5
20190223022205 49 113 2.0 4.0 0.00 0.04 0.04 98 1011.4
20190223022104 49 110 2.0 4.0 0.00 0.04 0.04 98 1011.4
20190223022004 49 107 2.0 4.0 0.00 0.04 0.04 98 1011.4
20190223021904 49 103 2.0 4.0 0.00 0.04 0.04 98 1011.3
20190223021804 49 100 2.0 4.0 0.00 0.04 0.04 98 1011.3
20190223021704 49 99 2.0 4.0 0.00 0.04 0.04 98 1011.3
20190223021605 49 99 2.0 4.0 0.00 0.04 0.04 98 1011.3
20190223021504 49 99 2.0 3.0 0.00 0.04 0.04 98 1011.3
20190223021404 49 97 2.0 3.0 0.00 0.04 0.04 98 1011.3
20190223021304 49 97 2.0 3.0 0.00 0.04 0.04 98 1011.3
20190223021204 49 94 2.0 3.0 0.00 0.04 0.04 98 1011.3
20190223021104 49 94 2.0 3.0 0.00 0.04 0.04 98 1011.3
20190223021004 49 92 2.0 3.0 0.00 0.04 0.04 98 1011.4
20190223020904 49 90 2.0 3.0 0.00 0.04 0.04 98 1011.4
20190223020804 49 88 2.0 4.0 0.00 0.04 0.04 98 1011.5
20190223020704 49 85 2.0 4.0 0.00 0.04 0.04 98 1011.5
20190223020604 49 83 2.0 4.0 0.00 0.04 0.04 98 1011.5
20190223020504 49 82 2.0 4.0 0.00 0.04 0.04 98 1011.5
20190223020404 49 81 2.0 4.0 0.00 0.04 0.04 98 1011.4
20190223020306 49 80 2.0 4.0 0.00 0.04 0.04 98 1011.4
20190223020204 49 82 2.0 5.0 0.00 0.04 0.04 98 1011.4
20190223020104 49 81 4.0 5.0 0.00 0.04 0.04 98 1011.3
20190223020004 49 81 4.0 5.0 0.00 0.04 0.04 98 1011.2
20190223015904 49 80 4.0 5.0 0.00 0.04 0.04 98 1011.2
20190223015804 49 80 4.0 5.0 0.00 0.04 0.04 98 1011.1
20190223015704 49 80 4.0 5.0 0.00 0.04 0.04 98 1011.2
20190223015604 49 79 4.0 5.0 0.00 0.04 0.04 98 1011.2
20190223015503 49 79 4.0 6.0 0.00 0.04 0.04 98 1011.2
20190223015403 49 79 4.0 6.0 0.00 0.04 0.04 98 1011.2
20190223015304 49 79 4.0 6.0 0.00 0.04 0.04 98 1011.2
20190223015204 49 77 4.0 6.0 0.00 0.04 0.04 98 1011.2
20190223015104 49 76 4.0 6.0 0.00 0.04 0.04 98 1011.2
20190223015004 49 76 5.0 6.0 0.00 0.04 0.04 98 1011.2
20190223014904 49 76 5.0 6.0 0.00 0.04 0.04 98 1011.2
20190223014804 49 76 4.0 6.0 0.00 0.04 0.04 98 1011.2
20190223014704 49 76 4.0 6.0 0.00 0.04 0.04 98 1011.2
20190223014604 49 75 4.0 6.0 0.00 0.04 0.04 98 1011.3
20190223014504 49 75 4.0 5.0 0.00 0.04 0.04 98 1011.3
20190223014404 49 75 4.0 5.0 0.00 0.04 0.04 98 1011.3
20190223014305 49 75 4.0 5.0 0.00 0.04 0.04 98 1011.3
20190223014204 49 74 4.0 5.0 0.00 0.04 0.04 98 1011.3
20190223014104 49 74 4.0 5.0 0.00 0.04 0.04 98 1011.4
20190223014004 49 74 2.0 4.0 0.00 0.04 0.04 98 1011.3
20190223013903 49 76 2.0 4.0 0.00 0.04 0.04 98 1011.3
20190223013804 49 77 2.0 4.0 0.00 0.04 0.04 98 1011.3
20190223013704 49 77 2.0 4.0 0.00 0.04 0.04 98 1011.3
20190223013604 49 78 4.0 4.0 0.00 0.04 0.04 98 1011.3
20190223013504 49 78 4.0 4.0 0.00 0.04 0.04 98 1011.3
20190223013405 49 78 4.0 4.0 0.00 0.04 0.04 98 1011.3
20190223013304 49 77 4.0 5.0 0.00 0.04 0.04 98 1011.3
20190223013204 49 77 4.0 5.0 0.00 0.04 0.04 98 1011.3
20190223013105 49 77 4.0 5.0 0.00 0.04 0.04 98 1011.4
20190223013004 49 75 4.0 5.0 0.00 0.04 0.04 98 1011.4
20190223012904 49 74 4.0 5.0 0.00 0.04 0.04 98 1011.3
20190223012804 49 74 4.0 5.0 0.00 0.04 0.04 98 1011.3
20190223012704 49 74 4.0 5.0 0.00 0.04 0.04 98 1011.3
20190223012605 49 73 4.0 5.0 0.00 0.04 0.04 98 1011.3
20190223012504 49 73 4.0 5.0 0.00 0.04 0.04 98 1011.3
20190223012404 49 73 4.0 5.0 0.00 0.04 0.04 98 1011.3
20190223012304 49 75 4.0 5.0 0.00 0.04 0.04 98 1011.4
20190223012204 49 76 4.0 5.0 0.00 0.04 0.04 98 1011.4
20190223012104 49 77 2.0 5.0 0.00 0.04 0.04 98 1011.4
20190223012004 49 78 2.0 5.0 0.00 0.04 0.04 98 1011.4
20190223011904 49 79 2.0 5.0 0.00 0.04 0.04 98 1011.4
20190223011805 49 80 2.0 5.0 0.00 0.04 0.04 98 1011.3
20190223011705 49 80 2.0 5.0 0.00 0.04 0.04 98 1011.4
20190223011604 49 80 2.0 5.0 0.00 0.04 0.04 98 1011.3
20190223011504 49 80 2.0 5.0 0.00 0.04 0.04 98 1011.3
20190223011405 49 80 2.0 5.0 0.00 0.04 0.04 98 1011.4
20190223011304 49 78 2.0 5.0 0.00 0.04 0.04 98 1011.3
20190223011204 49 78 2.0 4.0 0.00 0.04 0.04 98 1011.4
20190223011104 49 78 2.0 4.0 0.00 0.04 0.04 98 1011.4
20190223011004 49 79 2.0 4.0 0.00 0.04 0.04 98 1011.4
20190223010904 49 77 2.0 4.0 0.00 0.04 0.04 98 1011.4
20190223010804 49 76 2.0 4.0 0.00 0.04 0.04 98 1011.3
20190223010705 49 75 2.0 4.0 0.00 0.04 0.04 98 1011.4
20190223010604 49 74 4.0 4.0 0.00 0.04 0.04 98 1011.4
20190223010504 49 74 4.0 4.0 0.00 0.04 0.04 98 1011.4
20190223010404 49 73 4.0 4.0 0.00 0.04 0.04 98 1011.4
20190223010305 49 74 4.0 4.0 0.00 0.04 0.04 98 1011.4
20190223010204 49 75 4.0 4.0 0.00 0.04 0.04 98 1011.3
20190223010104 49 75 4.0 4.0 0.00 0.04 0.04 98 1011.3
20190223010004 49 74 4.0 5.0 0.00 0.04 0.04 98 1011.3
20190223005903 49 75 4.0 5.0 0.00 0.04 0.04 98 1011.3
20190223005804 49 75 4.0 5.0 0.00 0.04 0.04 98 1011.3
20190223005704 49 75 4.0 5.0 0.00 0.04 0.04 98 1011.2
20190223005604 49 77 4.0 5.0 0.00 0.04 0.04 98 1011.3
20190223005504 49 78 4.0 5.0 0.00 0.04 0.04 98 1011.2
20190223005405 49 79 4.0 6.0 0.00 0.04 0.04 98 1011.2
20190223005304 49 80 4.0 6.0 0.00 0.04 0.04 98 1011.2
20190223005204 49 79 5.0 7.0 0.00 0.04 0.04 98 1011.2
20190223005104 49 77 5.0 7.0 0.00 0.04 0.04 98 1011.2
20190223005004 49 77 4.0 7.0 0.00 0.04 0.04 98 1011.2
20190223004903 49 76 4.0 7.0 0.00 0.04 0.04 98 1011.2
20190223004804 49 77 5.0 7.0 0.00 0.04 0.04 98 1011.2
20190223004704 49 77 4.0 7.0 0.00 0.04 0.04 98 1011.2
20190223004604 49 78 4.0 7.0 0.00 0.04 0.04 98 1011.2
20190223004504 49 78 4.0 7.0 0.00 0.04 0.04 98 1011.2
20190223004404 49 78 4.0 7.0 0.00 0.04 0.04 98 1011.3
20190223004304 49 78 4.0 7.0 0.00 0.04 0.04 98 1011.3
20190223004204 49 79 4.0 5.0 0.00 0.04 0.04 98 1011.3
20190223004104 49 81 4.0 5.0 0.00 0.04 0.04 98 1011.3
20190223004003 49 82 4.0 5.0 0.00 0.04 0.04 98 1011.3
20190223003904 49 84 4.0 6.0 0.00 0.04 0.04 98 1011.3
20190223003804 49 84 5.0 7.0 0.00 0.04 0.04 98 1011.3
20190223003704 49 84 5.0 7.0 0.00 0.04 0.04 98 1011.3
20190223003604 49 83 5.0 7.0 0.00 0.04 0.04 98 1011.3
20190223003504 49 83 5.0 7.0 0.00 0.04 0.04 98 1011.2
20190223003404 49 82 5.0 7.0 0.00 0.04 0.04 98 1011.2
20190223003305 49 82 5.0 7.0 0.00 0.04 0.04 98 1011.2
20190223003204 49 81 5.0 7.0 0.00 0.04 0.04 98 1011.3
20190223003104 49 80 5.0 7.0 0.00 0.04 0.04 98 1011.3
20190223003004 49 80 5.0 7.0 0.00 0.04 0.04 98 1011.3
20190223002904 49 80 5.0 7.0 0.00 0.04 0.04 98 1011.3
20190223002804 49 79 5.0 6.0 0.00 0.04 0.04 98 1011.3
20190223002704 49 77 5.0 6.0 0.00 0.04 0.04 98 1011.2
20190223002604 49 77 5.0 6.0 0.00 0.04 0.04 98 1011.2
20190223002504 49 75 5.0 6.0 0.00 0.04 0.04 98 1011.3
20190223002404 49 74 5.0 7.0 0.00 0.04 0.04 98 1011.3
20190223002304 49 71 5.0 7.0 0.00 0.04 0.04 98 1011.3
20190223002204 49 71 5.0 7.0 0.00 0.04 0.04 98 1011.3
20190223002104 49 73 5.0 7.0 0.00 0.04 0.04 98 1011.3
20190223002004 49 75 5.0 7.0 0.00 0.04 0.04 98 1011.3
20190223001904 49 76 5.0 7.0 0.00 0.04 0.04 98 1011.3
20190223001804 49 77 5.0 7.0 0.00 0.04 0.04 98 1011.3
20190223001704 49 78 5.0 7.0 0.00 0.04 0.04 98 1011.3
20190223001604 49 79 5.0 7.0 0.00 0.04 0.04 98 1011.3
20190223001504 49 82 5.0 7.0 0.00 0.04 0.04 98 1011.3
20190223001405 49 85 5.0 7.0 0.00 0.04 0.04 98 1011.3
20190223001304 49 89 5.0 7.0 0.00 0.04 0.04 98 1011.3
20190223001204 49 90 5.0 7.0 0.00 0.04 0.04 98 1011.5
20190223001104 49 90 5.0 6.0 0.00 0.04 0.04 98 1011.5
20190223001004 49 90 5.0 6.0 0.00 0.04 0.04 98 1011.4
20190223000904 49 90 5.0 6.0 0.00 0.04 0.04 98 1011.4
20190223000804 49 90 5.0 6.0 0.00 0.04 0.04 98 1011.4
20190223000704 49 90 5.0 6.0 0.00 0.04 0.04 98 1011.4
20190223000604 49 89 5.0 6.0 0.00 0.04 0.04 98 1011.4
20190223000504 49 88 5.0 6.0 0.00 0.04 0.04 98 1011.5
20190223000404 49 87 5.0 6.0 0.00 0.04 0.04 98 1011.5
20190223000304 49 86 5.0 6.0 0.00 0.04 0.04 98 1011.4
20190223000204 49 86 5.0 6.0 0.00 0.04 0.04 98 1011.4
20190223000104 49 86 6.0 6.0 0.00 0.04 0.04 98 1011.4
20190223000004 49 86 6.0 7.0 0.00 0.04 0.04 98 1011.4
20190222235904 49 87 6.0 7.0 0.00 0.04 0.04 98 1011.4
20190222235804 49 88 6.0 7.0 0.00 0.04 0.04 98 1011.5
20190222235704 49 89 6.0 7.0 0.00 0.04 0.04 98 1011.5
20190222235605 49 90 6.0 7.0 0.00 0.04 0.04 98 1011.5
20190222235504 49 90 6.0 7.0 0.00 0.04 0.04 98 1011.5
20190222235404 49 91 6.0 7.0 0.00 0.04 0.04 98 1011.5
20190222235304 49 92 6.0 7.0 0.00 0.04 0.04 98 1011.5
20190222235205 49 90 6.0 7.0 0.00 0.04 0.04 98 1011.5
20190222235104 49 90 6.0 8.0 0.00 0.04 0.04 98 1011.5
20190222235004 49 90 6.0 8.0 0.00 0.04 0.04 98 1011.5
20190222234904 49 90 6.0 8.0 0.00 0.04 0.04 98 1011.5
20190222234804 49 89 6.0 8.0 0.00 0.04 0.04 98 1011.6
20190222234704 49 87 7.0 8.0 0.00 0.04 0.04 98 1011.6
20190222234604 49 88 7.0 8.0 0.00 0.04 0.04 98 1011.6
20190222234504 49 88 7.0 8.0 0.00 0.04 0.04 98 1011.6
20190222234404 49 88 7.0 8.0 0.00 0.04 0.04 98 1011.6
20190222234305 49 87 6.0 8.0 0.00 0.04 0.04 98 1011.6
20190222234204 49 88 6.0 8.0 0.00 0.04 0.04 98 1011.6
20190222234104 49 87 6.0 8.0 0.00 0.04 0.04 98 1011.7
20190222234004 49 87 6.0 8.0 0.00 0.04 0.04 98 1011.6
20190222233904 49 87 6.0 8.0 0.00 0.04 0.04 98 1011.6
20190222233804 49 87 6.0 8.0 0.00 0.04 0.04 98 1011.6
20190222233705 49 88 6.0 8.0 0.00 0.04 0.04 98 1011.6
20190222233604 49 87 6.0 7.0 0.00 0.04 0.04 98 1011.6
20190222233504 49 86 6.0 7.0 0.00 0.04 0.04 98 1011.6
20190222233404 49 83 7.0 8.0 0.00 0.04 0.04 98 1011.6
20190222233305 49 82 7.0 9.0 0.00 0.04 0.04 98 1011.6
20190222233205 49 81 7.0 9.0 0.00 0.04 0.04 98 1011.6
20190222233104 49 82 7.0 9.0 0.00 0.04 0.04 98 1011.6
20190222233004 49 82 7.0 9.0 0.00 0.04 0.04 98 1011.6
20190222232904 49 80 7.0 9.0 0.00 0.04 0.04 98 1011.5
20190222232805 49 78 7.0 9.0 0.00 0.04 0.04 98 1011.6
20190222232704 49 77 7.0 9.0 0.00 0.04 0.04 98 1011.6
20190222232604 49 76 7.0 9.0 0.00 0.04 0.04 98 1011.7
20190222232505 49 75 7.0 9.0 0.00 0.04 0.04 98 1011.7
20190222232404 49 75 7.0 9.0 0.00 0.04 0.04 98 1011.7
20190222232304 49 75 6.0 9.0 0.00 0.04 0.04 98 1011.7
20190222232205 49 75 6.0 9.0 0.00 0.04 0.04 98 1011.7
20190222232104 49 75 7.0 9.0 0.00 0.04 0.04 98 1011.7
20190222232004 49 74 7.0 9.0 0.00 0.04 0.04 98 1011.6
20190222231904 49 75 7.0 9.0 0.00 0.04 0.04 98 1011.6
20190222231805 49 76 7.0 9.0 0.00 0.04 0.04 98 1011.6
20190222231704 49 77 6.0 9.0 0.00 0.04 0.04 98 1011.6
20190222231604 49 77 6.0 9.0 0.00 0.04 0.04 98 1011.6
20190222231504 49 78 6.0 9.0 0.00 0.04 0.04 98 1011.7
20190222231404 49 78 6.0 9.0 0.00 0.04 0.04 98 1011.7
20190222231304 49 79 6.0 9.0 0.00 0.04 0.04 98 1011.7
20190222231204 49 78 6.0 9.0 0.00 0.04 0.04 98 1011.7
20190222231104 49 76 6.0 9.0 0.00 0.04 0.04 98 1011.7
20190222231004 49 76 6.0 9.0 0.00 0.04 0.04 98 1011.7
20190222230904 49 74 5.0 9.0 0.00 0.04 0.04 98 1011.7
20190222230804 49 73 5.0 7.0 0.00 0.04 0.04 98 1011.8
20190222230704 49 70 5.0 7.0 0.00 0.04 0.04 98 1011.8
20190222230605 49 68 6.0 8.0 0.00 0.04 0.04 98 1011.8
20190222230504 49 66 6.0 8.0 0.00 0.04 0.04 98 1011.8
20190222230404 49 65 6.0 8.0 0.00 0.04 0.04 98 1011.8
20190222230304 49 64 6.0 8.0 0.00 0.04 0.04 98 1011.8
20190222230204 49 65 6.0 8.0 0.00 0.04 0.04 98 1011.8
20190222230104 49 65 6.0 8.0 0.00 0.04 0.04 98 1011.8
20190222230004 49 65 6.0 8.0 0.00 0.04 0.04 98 1011.8
20190222225904 49 64 6.0 8.0 0.00 0.04 0.04 98 1011.8
20190222225804 49 66 6.0 8.0 0.00 0.04 0.04 98 1011.8
20190222225704 49 68 6.0 8.0 0.00 0.04 0.04 98 1011.8
20190222225604 49 70 6.0 7.0 0.00 0.04 0.04 98 1011.8
20190222225504 49 71 6.0 7.0 0.00 0.04 0.04 98 1011.8
20190222225404 49 72 6.0 7.0 0.00 0.04 0.04 98 1011.7
20190222225304 49 72 5.0 7.0 0.00 0.04 0.04 98 1011.8
20190222225204 49 71 5.0 7.0 0.00 0.04 0.04 98 1011.8
20190222225104 49 69 5.0 7.0 0.00 0.04 0.04 98 1011.8
20190222225004 49 68 5.0 7.0 0.00 0.04 0.04 98 1011.8
20190222224904 49 69 5.0 7.0 0.00 0.04 0.04 98 1011.9
20190222224804 49 68 5.0 7.0 0.00 0.04 0.04 98 1011.9
20190222224704 49 69 5.0 7.0 0.00 0.04 0.04 98 1012.0
20190222224604 49 68 5.0 7.0 0.00 0.04 0.04 98 1011.9
20190222224504 49 68 6.0 7.0 0.00 0.04 0.04 98 1012.0
20190222224404 49 67 6.0 7.0 0.00 0.04 0.04 98 1011.9
20190222224304 49 67 6.0 7.0 0.00 0.04 0.04 98 1011.9
20190222224204 49 68 6.0 7.0 0.00 0.04 0.04 98 1011.9
20190222224104 49 71 6.0 7.0 0.00 0.04 0.04 98 1011.9
20190222224004 49 74 6.0 7.0 0.00 0.04 0.04 98 1011.9
20190222223904 49 75 6.0 7.0 0.00 0.04 0.04 98 1012.0
20190222223804 49 76 6.0 7.0 0.00 0.04 0.04 98 1012.0
20190222223705 49 75 6.0 7.0 0.00 0.04 0.04 98 1012.0
20190222223604 49 75 6.0 7.0 0.00 0.04 0.04 98 1012.0
20190222223504 49 76 6.0 7.0 0.00 0.04 0.04 98 1012.0
20190222223404 49 77 5.0 7.0 0.00 0.04 0.04 98 1012.0
20190222223305 49 77 5.0 7.0 0.00 0.04 0.04 98 1012.0
20190222223205 49 77 5.0 7.0 0.00 0.04 0.04 98 1012.0
20190222223104 49 76 5.0 7.0 0.00 0.04 0.04 98 1012.0
20190222223004 49 74 5.0 5.0 0.00 0.04 0.04 98 1012.1
20190222222904 49 72 5.0 5.0 0.00 0.04 0.04 98 1012.1
20190222222804 49 71 5.0 5.0 0.00 0.04 0.04 98 1012.1
20190222222705 49 70 5.0 6.0 0.00 0.04 0.04 98 1012.1
20190222222604 49 69 5.0 6.0 0.00 0.04 0.04 98 1012.2
20190222222504 49 68 5.0 8.0 0.00 0.04 0.04 98 1012.2
20190222222404 49 66 5.0 8.0 0.00 0.04 0.04 98 1012.2
20190222222304 49 65 5.0 8.0 0.00 0.04 0.04 98 1012.1
20190222222204 49 64 6.0 8.0 0.00 0.04 0.04 98 1012.1
20190222222104 49 62 6.0 8.0 0.00 0.04 0.04 98 1012.1
20190222222005 49 62 6.0 8.0 0.00 0.04 0.04 98 1012.1
20190222221905 49 61 6.0 8.0 0.00 0.04 0.04 98 1012.1
20190222221804 49 59 6.0 8.0 0.00 0.04 0.04 98 1012.1
20190222221704 49 58 6.0 8.0 0.00 0.04 0.04 98 1012.0
20190222221604 49 59 6.0 8.0 0.00 0.04 0.04 98 1012.0
20190222221504 49 58 5.0 7.0 0.00 0.04 0.04 98 1012.0
20190222221404 49 60 5.0 7.0 0.00 0.04 0.04 98 1011.9
20190222221304 49 61 5.0 7.0 0.00 0.04 0.04 98 1012.0
20190222221205 49 62 5.0 7.0 0.00 0.04 0.04 98 1012.0
20190222221104 49 65 5.0 7.0 0.00 0.04 0.04 98 1011.9
20190222221004 49 66 5.0 7.0 0.00 0.04 0.04 98 1012.0
20190222220904 49 66 5.0 7.0 0.00 0.04 0.04 98 1011.9
20190222220804 49 67 5.0 7.0 0.00 0.04 0.04 98 1012.0
20190222220704 49 67 5.0 7.0 0.00 0.04 0.04 98 1012.0
20190222220605 49 66 5.0 7.0 0.00 0.04 0.04 98 1011.9
20190222220504 49 67 5.0 7.0 0.00 0.04 0.04 98 1011.9
20190222220404 49 67 6.0 8.0 0.00 0.04 0.04 98 1011.8
20190222220304 49 67 6.0 8.0 0.00 0.04 0.04 98 1011.8
20190222220204 49 68 6.0 8.0 0.00 0.04 0.04 98 1011.8
20190222220105 49 67 6.0 8.0 0.00 0.04 0.04 98 1011.8
20190222220004 49 68 7.0 8.0 0.00 0.04 0.04 98 1011.8
20190222215904 49 68 7.0 8.0 0.00 0.04 0.04 98 1011.8
20190222215804 49 71 7.0 9.0 0.00 0.04 0.04 98 1011.8
20190222215704 49 72 7.0 9.0 0.00 0.04 0.04 98 1011.8
20190222215605 49 74 7.0 9.0 0.00 0.04 0.04 98 1011.8
20190222215504 49 74 7.0 9.0 0.00 0.04 0.04 98 1011.9
20190222215404 49 75 7.0 9.0 0.00 0.04 0.04 98 1012.0
20190222215304 49 76 7.0 9.0 0.00 0.04 0.04 98 1012.0
20190222215204 49 77 7.0 9.0 0.00 0.04 0.04 98 1012.0
20190222215103 49 77 6.0 9.0 0.00 0.04 0.04 98 1012.1
20190222215005 49 78 6.0 9.0 0.00 0.04 0.04 98 1012.0
20190222214904 49 79 6.0 9.0 0.00 0.04 0.04 98 1012.0
20190222214804 49 80 6.0 9.0 0.00 0.04 0.04 98 1012.0
20190222214704 49 80 6.0 9.0 0.00 0.04 0.04 98 1012.0
20190222214604 49 80 7.0 9.0 0.00 0.04 0.04 98 1012.0
20190222214504 49 81 7.0 9.0 0.00 0.04 0.04 98 1012.0
20190222214404 49 82 7.0 9.0 0.00 0.04 0.04 98 1011.9
20190222214304 49 81 6.0 9.0 0.00 0.04 0.04 98 1011.9
20190222214204 49 80 6.0 8.0 0.00 0.04 0.04 98 1011.9
20190222214104 49 81 6.0 8.0 0.00 0.04 0.04 98 1011.9
20190222214004 49 81 6.0 8.0 0.00 0.04 0.04 98 1012.0
20190222213905 49 79 5.0 8.0 0.00 0.04 0.04 98 1012.0
20190222213804 49 76 5.0 8.0 0.00 0.04 0.04 98 1012.0
20190222213704 49 74 5.0 8.0 0.00 0.04 0.04 98 1012.0
20190222213604 49 71 5.0 7.0 0.00 0.04 0.04 98 1012.1
20190222213504 49 69 5.0 7.0 0.00 0.04 0.04 98 1012.1
20190222213403 49 67 5.0 7.0 0.00 0.04 0.04 98 1012.1
20190222213305 49 66 5.0 6.0 0.00 0.04 0.04 98 1012.1
20190222213204 49 66 5.0 6.0 0.00 0.04 0.04 98 1012.1
20190222213104 49 67 5.0 6.0 0.00 0.04 0.04 98 1012.1
20190222213003 49 67 5.0 7.0 0.00 0.04 0.04 98 1012.1
20190222212904 49 69 6.0 7.0 0.00 0.04 0.04 98 1012.1
20190222212804 49 71 6.0 7.0 0.00 0.04 0.04 98 1012.1
20190222212704 49 75 6.0 7.0 0.00 0.04 0.04 98 1012.2
20190222212604 49 77 6.0 7.0 0.00 0.04 0.04 98 1012.1
20190222212504 49 79 6.0 7.0 0.00 0.04 0.04 98 1012.2
20190222212404 49 80 6.0 7.0 0.00 0.04 0.04 98 1012.1
20190222212304 49 80 6.0 7.0 0.00 0.04 0.04 98 1012.1
20190222212204 49 81 6.0 7.0 0.00 0.04 0.04 98 1012.1
20190222212104 48 81 6.0 7.0 0.00 0.04 0.04 98 1012.1
20190222212004 48 82 6.0 7.0 0.00 0.04 0.04 98 1012.1
20190222211903 49 82 6.0 7.0 0.00 0.04 0.04 98 1012.1
20190222211804 49 82 5.0 7.0 0.00 0.04 0.04 98 1012.1
20190222211704 49 81 5.0 7.0 0.00 0.04 0.04 98 1012.0
20190222211604 49 82 6.0 7.0 0.00 0.04 0.04 98 1012.1
20190222211504 49 82 6.0 7.0 0.00 0.04 0.04 98 1012.0
20190222211404 49 81 6.0 8.0 0.00 0.04 0.04 98 1012.0
20190222211305 49 82 6.0 8.0 0.00 0.04 0.04 98 1011.9
20190222211204 49 82 6.0 8.0 0.00 0.04 0.04 98 1011.9
20190222211104 49 83 6.0 8.0 0.00 0.04 0.04 98 1011.9
20190222211004 49 82 6.0 8.0 0.00 0.04 0.04 98 1011.9
20190222210905 49 82 6.0 8.0 0.00 0.04 0.04 98 1011.9
20190222210804 49 81 6.0 8.0 0.00 0.04 0.04 98 1011.9
20190222210704 49 81 7.0 8.0 0.00 0.04 0.04 98 1011.8
20190222210604 49 79 7.0 9.0 0.00 0.04 0.04 98 1011.8
20190222210504 49 79 7.0 10.0 0.00 0.04 0.04 98 1011.8
20190222210405 49 78 7.0 10.0 0.00 0.04 0.04 98 1011.8
20190222210304 49 77 7.0 10.0 0.00 0.04 0.04 98 1011.8
20190222210204 49 75 7.0 10.0 0.00 0.04 0.04 98 1011.8
20190222210104 49 74 8.0 10.0 0.00 0.04 0.04 98 1011.8
20190222210005 49 73 8.0 10.0 0.00 0.04 0.04 98 1011.8
20190222205904 48 72 8.0 10.0 0.00 0.04 0.04 98 1011.8
20190222205804 48 71 8.0 10.0 0.00 0.04 0.04 98 1011.8
20190222205704 48 69 8.0 11.0 0.00 0.04 0.04 98 1011.7
20190222205604 48 68 8.0 11.0 0.00 0.04 0.04 98 1011.7
20190222205505 48 68 8.0 11.0 0.00 0.04 0.04 98 1011.7
20190222205404 48 69 8.0 11.0 0.00 0.04 0.04 98 1011.6
20190222205304 48 69 8.0 11.0 0.00 0.04 0.04 98 1011.7
20190222205204 48 70 8.0 11.0 0.00 0.04 0.04 98 1011.7
20190222205103 48 70 8.0 11.0 0.00 0.04 0.04 98 1011.7
20190222205004 48 69 8.0 11.0 0.00 0.04 0.04 98 1011.7
20190222204904 48 69 8.0 11.0 0.00 0.04 0.04 98 1011.8
20190222204804 48 70 8.0 11.0 0.00 0.04 0.04 98 1011.7
20190222204703 48 71 8.0 11.0 0.00 0.04 0.04 98 1011.7
20190222204604 48 71 8.0 11.0 0.00 0.04 0.04 98 1011.8
20190222204505 48 70 8.0 11.0 0.00 0.04 0.04 98 1011.8
20190222204404 48 68 8.0 11.0 0.00 0.04 0.04 98 1011.8
20190222204304 48 68 8.0 11.0 0.00 0.04 0.04 98 1011.8
20190222204204 48 67 8.0 11.0 0.00 0.04 0.04 98 1011.8
20190222204103 48 67 8.0 11.0 0.00 0.04 0.04 98 1011.7
20190222204004 48 68 8.0 11.0 0.00 0.04 0.04 98 1011.8
20190222203904 48 69 8.0 11.0 0.00 0.04 0.04 98 1011.8
20190222203804 48 68 8.0 11.0 0.00 0.04 0.04 98 1011.8
20190222203704 48 68 8.0 10.0 0.00 0.04 0.04 98 1011.8
20190222203605 48 67 8.0 10.0 0.00 0.04 0.04 98 1011.8
20190222203504 48 68 8.0 10.0 0.00 0.04 0.04 98 1011.9
20190222203404 48 68 7.0 10.0 0.00 0.04 0.04 98 1011.9
20190222203304 48 67 7.0 10.0 0.00 0.04 0.04 98 1012.0
20190222203204 48 68 7.0 10.0 0.00 0.04 0.04 98 1012.1
20190222203104 48 69 7.0 10.0 0.00 0.04 0.04 98 1012.1
20190222203004 48 69 7.0 10.0 0.00 0.04 0.04 98 1012.2
20190222202904 48 68 7.0 10.0 0.00 0.04 0.04 98 1012.2
20190222202804 48 67 7.0 10.0 0.00 0.04 0.04 98 1012.2
20190222202704 48 65 7.0 10.0 0.00 0.04 0.04 98 1012.1
20190222202604 48 65 7.0 10.0 0.00 0.04 0.04 98 1012.2
20190222202504 48 64 7.0 10.0 0.00 0.04 0.04 98 1012.2
20190222202404 48 63 7.0 10.0 0.00 0.04 0.04 98 1012.2
20190222202304 48 62 6.0 10.0 0.00 0.04 0.04 98 1012.2
20190222202204 48 59 6.0 10.0 0.01 0.04 0.04 98 1012.2
20190222202104 48 56 6.0 9.0 0.01 0.04 0.04 98 1012.1
20190222202004 48 53 6.0 8.0 0.01 0.04 0.04 98 1012.1
20190222201904 48 50 5.0 8.0 0.01 0.04 0.04 98 1012.2
20190222201804 48 49 5.0 8.0 0.01 0.04 0.04 98 1012.2
20190222201704 48 48 5.0 7.0 0.01 0.04 0.04 98 1012.2
20190222201604 48 47 5.0 7.0 0.01 0.04 0.04 98 1012.2
20190222201504 48 50 5.0 7.0 0.01 0.04 0.04 98 1012.2
20190222201404 48 52 5.0 7.0 0.01 0.04 0.04 98 1012.2
20190222201304 48 54 5.0 7.0 0.01 0.04 0.04 98 1012.3
20190222201204 48 58 5.0 7.0 0.01 0.04 0.04 98 1012.3
20190222201104 48 59 5.0 8.0 0.01 0.04 0.04 98 1012.4
20190222201004 48 61 5.0 8.0 0.01 0.04 0.04 98 1012.4
20190222200905 48 62 6.0 8.0 0.01 0.04 0.04 98 1012.5
20190222200804 48 63 6.0 8.0 0.01 0.04 0.04 98 1012.4
20190222200705 48 66 6.0 8.0 0.01 0.04 0.04 98 1012.4
20190222200604 48 67 6.0 8.0 0.01 0.04 0.04 98 1012.5
20190222200504 48 66 6.0 8.0 0.01 0.04 0.04 98 1012.5
20190222200405 48 66 6.0 8.0 0.01 0.04 0.04 98 1012.5
20190222200304 48 65 6.0 8.0 0.01 0.04 0.04 98 1012.4
20190222200204 48 64 6.0 8.0 0.01 0.04 0.04 98 1012.4
20190222200104 48 64 6.0 8.0 0.02 0.04 0.04 98 1012.5
20190222200004 48 63 6.0 8.0 0.02 0.04 0.04 98 1012.5
20190222195904 48 62 5.0 8.0 0.03 0.04 0.04 98 1012.6
20190222195804 48 63 5.0 8.0 0.03 0.04 0.04 98 1012.6
20190222195705 48 62 5.0 8.0 0.03 0.04 0.04 98 1012.6
20190222195604 48 63 5.0 8.0 0.03 0.04 0.04 98 1012.7
20190222195504 48 65 4.0 8.0 0.03 0.04 0.04 98 1012.7
20190222195405 48 66 4.0 8.0 0.03 0.04 0.04 98 1012.7
20190222195304 48 66 4.0 8.0 0.03 0.04 0.04 98 1012.7
20190222195204 48 67 5.0 8.0 0.03 0.04 0.04 98 1012.7
20190222195104 48 67 4.0 8.0 0.03 0.04 0.04 98 1012.8
20190222195004 48 70 4.0 7.0 0.03 0.04 0.04 98 1012.8
20190222194904 48 71 4.0 7.0 0.03 0.04 0.04 98 1012.8
20190222194804 48 71 5.0 7.0 0.03 0.04 0.04 98 1012.9
20190222194704 48 70 5.0 7.0 0.03 0.04 0.04 98 1012.9
20190222194605 48 68 5.0 8.0 0.03 0.04 0.04 98 1012.9
20190222194504 48 67 5.0 8.0 0.03 0.04 0.04 98 1012.9
20190222194405 48 66 6.0 8.0 0.03 0.04 0.04 98 1012.9
20190222194304 48 66 6.0 8.0 0.03 0.04 0.04 98 1012.9
20190222194204 48 65 6.0 8.0 0.03 0.04 0.04 98 1012.9
20190222194104 48 64 6.0 8.0 0.03 0.04 0.04 98 1012.9
20190222194003 48 63 6.0 8.0 0.03 0.04 0.04 98 1012.9
20190222193904 48 63 7.0 8.0 0.03 0.04 0.04 98 1012.8
20190222193804 48 62 7.0 8.0 0.03 0.04 0.04 98 1012.8
20190222193704 48 61 6.0 8.0 0.03 0.04 0.04 98 1012.7
20190222193604 48 61 6.0 8.0 0.03 0.04 0.04 98 1012.7
20190222193504 48 60 6.0 8.0 0.03 0.04 0.04 98 1012.8
20190222193404 48 59 6.0 9.0 0.03 0.04 0.04 98 1012.9
20190222193304 48 59 6.0 9.0 0.03 0.04 0.04 98 1012.9
20190222193204 48 60 6.0 9.0 0.03 0.04 0.04 98 1013.0
20190222193104 48 61 6.0 9.0 0.03 0.04 0.04 98 1012.8
20190222193004 48 62 6.0 9.0 0.03 0.04 0.04 98 1012.9
20190222192905 48 64 5.0 9.0 0.03 0.04 0.04 98 1012.8
20190222192804 48 66 5.0 9.0 0.03 0.04 0.04 98 1012.9
20190222192704 48 66 5.0 9.0 0.03 0.04 0.04 98 1013.0
20190222192605 48 67 5.0 9.0 0.03 0.04 0.04 98 1013.0
20190222192504 48 66 5.0 9.0 0.03 0.04 0.04 98 1013.1
20190222192404 48 67 5.0 7.0 0.03 0.04 0.04 98 1013.1
20190222192304 48 68 5.0 7.0 0.03 0.04 0.04 98 1013.1
20190222192205 48 66 5.0 8.0 0.02 0.03 0.03 98 1013.1
20190222192104 48 65 6.0 9.0 0.02 0.03 0.03 98 1013.1
20190222192004 48 63 6.0 9.0 0.02 0.03 0.03 98 1013.1
20190222191904 48 62 6.0 9.0 0.02 0.03 0.03 98 1013.1
20190222191804 48 61 7.0 9.0 0.02 0.03 0.03 98 1013.1
20190222191704 48 61 7.0 10.0 0.02 0.03 0.03 98 1013.0
20190222191604 48 61 7.0 11.0 0.02 0.03 0.03 98 1013.0
20190222191504 48 62 8.0 11.0 0.02 0.03 0.03 98 1013.0
20190222191404 48 62 8.0 11.0 0.02 0.03 0.03 98 1013.0
20190222191304 48 62 8.0 11.0 0.02 0.03 0.03 98 1013.0
20190222191204 48 62 8.0 11.0 0.02 0.03 0.03 98 1013.0
20190222191104 48 62 7.0 11.0 0.02 0.03 0.03 98 1013.0
20190222191005 48 63 7.0 11.0 0.02 0.03 0.03 98 1013.0
20190222190904 48 62 6.0 11.0 0.02 0.03 0.03 98 1013.0
20190222190804 48 61 6.0 11.0 0.02 0.03 0.03 98 1013.1
20190222190704 48 60 5.0 11.0 0.02 0.03 0.03 98 1013.2
20190222190604 48 60 5.0 10.0 0.02 0.03 0.03 98 1013.3
20190222190505 48 61 4.0 8.0 0.02 0.03 0.03 98 1013.4
20190222190404 48 61 4.0 8.0 0.02 0.03 0.03 98 1013.5
20190222190304 48 58 4.0 6.0 0.02 0.03 0.03 98 1013.7
20190222190204 48 56 4.0 5.0 0.01 0.02 0.02 98 1013.7
20190222190105 48 55 4.0 6.0 0.01 0.02 0.02 98 1013.5
20190222190004 48 54 4.0 7.0 0.01 0.02 0.02 98 1013.5
20190222185904 48 55 5.0 7.0 0.00 0.01 0.01 98 1013.7
20190222185804 48 53 5.0 7.0 0.00 0.01 0.01 98 1013.9
20190222185705 48 53 5.0 7.0 0.00 0.01 0.01 98 1013.9
20190222185604 48 51 5.0 7.0 0.00 0.01 0.01 98 1014.0
20190222185504 48 50 6.0 7.0 0.00 0.01 0.01 98 1014.0
20190222185405 48 48 6.0 7.0 0.00 0.01 0.01 98 1014.0
20190222185304 48 47 6.0 7.0 0.00 0.01 0.01 98 1013.9
20190222185204 48 46 6.0 7.0 0.00 0.01 0.01 98 1013.9
20190222185104 48 45 6.0 7.0 0.00 0.01 0.01 98 1013.9
20190222185004 48 42 6.0 7.0 0.00 0.01 0.01 98 1013.9
20190222184904 48 41 6.0 7.0 0.00 0.01 0.01 98 1013.8
20190222184804 48 40 5.0 7.0 0.00 0.01 0.01 98 1013.9
20190222184704 48 38 5.0 7.0 0.00 0.01 0.01 98 1014.0
20190222184604 48 37 5.0 7.0 0.00 0.01 0.01 98 1014.0
20190222184503 48 33 5.0 6.0 0.00 0.01 0.01 98 1014.0
20190222184404 48 31 5.0 6.0 0.00 0.01 0.01 98 1014.0
20190222184304 48 32 4.0 6.0 0.00 0.01 0.01 98 1014.0
20190222184204 48 32 4.0 6.0 0.00 0.01 0.01 98 1013.9
20190222184104 48 33 4.0 6.0 0.00 0.01 0.01 98 1014.0
20190222184005 48 35 4.0 6.0 0.00 0.01 0.01 98 1014.0
20190222183904 48 34 4.0 6.0 0.00 0.01 0.01 98 1014.1
20190222183804 48 34 4.0 6.0 0.00 0.01 0.01 98 1014.0
20190222183704 48 34 5.0 6.0 0.00 0.01 0.01 98 1014.0
20190222183604 48 36 5.0 6.0 0.00 0.01 0.01 98 1014.1
20190222183504 48 39 5.0 6.0 0.00 0.01 0.01 98 1014.1
20190222183404 48 41 5.0 6.0 0.00 0.01 0.01 98 1014.2
20190222183304 48 41 5.0 6.0 0.00 0.01 0.01 98 1014.2
20190222183204 48 42 5.0 6.0 0.00 0.01 0.01 98 1014.2
20190222183104 48 45 5.0 6.0 0.00 0.01 0.01 98 1014.3
20190222183004 48 47 5.0 6.0 0.00 0.01 0.01 98 1014.3
20190222182904 48 51 5.0 6.0 0.00 0.01 0.01 98 1014.3
20190222182805 48 56 5.0 6.0 0.00 0.01 0.01 98 1014.2
20190222182704 48 60 5.0 7.0 0.00 0.01 0.01 98 1014.2
20190222182604 48 61 5.0 7.0 0.00 0.01 0.01 98 1014.3
20190222182504 48 61 5.0 7.0 0.00 0.01 0.01 98 1014.3
20190222182404 48 59 5.0 8.0 0.00 0.01 0.01 98 1014.3
20190222182304 48 57 5.0 8.0 0.00 0.01 0.01 98 1014.3
20190222182205 48 57 5.0 8.0 0.00 0.01 0.01 98 1014.3
20190222182104 48 55 6.0 8.0 0.00 0.01 0.01 98 1014.4
20190222182004 48 51 6.0 8.0 0.00 0.01 0.01 98 1014.4
20190222181905 48 48 6.0 8.0 0.00 0.01 0.01 98 1014.3
20190222181804 48 46 6.0 8.0 0.00 0.01 0.01 98 1014.2
20190222181705 48 44 6.0 8.0 0.00 0.01 0.01 98 1014.2
20190222181604 48 43 6.0 8.0 0.00 0.01 0.01 98 1014.2
20190222181504 48 43 6.0 8.0 0.00 0.01 0.01 98 1014.2
20190222181404 48 43 6.0 8.0 0.00 0.01 0.01 98 1014.3
20190222181305 48 44 6.0 8.0 0.00 0.01 0.01 98 1014.3
20190222181204 48 42 6.0 8.0 0.00 0.01 0.01 98 1014.4
20190222181104 47 41 6.0 8.0 0.00 0.01 0.01 98 1014.4
20190222181005 48 41 6.0 8.0 0.00 0.01 0.01 98 1014.3
20190222180904 48 38 6.0 8.0 0.00 0.01 0.01 98 1014.3
20190222180804 48 35 6.0 8.0 0.00 0.01 0.01 98 1014.3
20190222180704 48 33 6.0 8.0 0.00 0.01 0.01 98 1014.3
20190222180604 48 32 6.0 8.0 0.00 0.01 0.01 98 1014.4
20190222180504 48 30 6.0 8.0 0.00 0.01 0.01 98 1014.4
20190222180404 48 29 6.0 8.0 0.00 0.01 0.01 98 1014.4
20190222180303 48 28 6.0 8.0 0.00 0.01 0.01 98 1014.4
20190222180204 48 27 6.0 7.0 0.00 0.01 0.01 98 1014.5
20190222180104 48 24 6.0 7.0 0.00 0.01 0.01 98 1014.5
20190222180005 48 22 5.0 7.0 0.00 0.01 0.01 98 1014.4
20190222175904 47 21 6.0 7.0 0.00 0.01 0.01 98 1014.5
20190222175804 47 22 6.0 7.0 0.00 0.01 0.01 98 1014.5
20190222175704 47 20 6.0 7.0 0.00 0.01 0.01 98 1014.6
20190222175604 47 19 6.0 7.0 0.00 0.01 0.01 98 1014.6
20190222175505 47 18 6.0 8.0 0.00 0.01 0.01 98 1014.6
20190222175405 47 18 6.0 8.0 0.00 0.01 0.01 98 1014.7
20190222175304 47 18 6.0 8.0 0.00 0.01 0.01 98 1014.7
20190222175204 47 19 6.0 8.0 0.00 0.01 0.01 98 1014.7
20190222175104 47 21 6.0 8.0 0.00 0.01 0.01 98 1014.7
20190222175004 47 23 6.0 8.0 0.00 0.01 0.01 98 1014.6
20190222174903 47 26 6.0 8.0 0.00 0.01 0.01 98 1014.6
20190222174804 47 28 6.0 8.0 0.00 0.01 0.01 98 1014.7
20190222174704 47 29 6.0 8.0 0.00 0.01 0.01 98 1014.7
20190222174604 47 31 6.0 8.0 0.00 0.01 0.01 98 1014.7
20190222174504 47 34 6.0 8.0 0.00 0.01 0.01 98 1014.8
20190222174403 47 32 6.0 9.0 0.00 0.01 0.01 98 1014.8
20190222174304 47 32 6.0 9.0 0.00 0.01 0.01 98 1014.9
20190222174204 47 33 6.0 9.0 0.00 0.01 0.01 98 1014.9
20190222174104 47 35 6.0 9.0 0.00 0.01 0.01 98 1014.9
20190222174004 47 35 6.0 9.0 0.00 0.01 0.01 98 1014.9
20190222173904 47 35 6.0 9.0 0.00 0.01 0.01 98 1015.0
20190222173804 47 34 6.0 9.0 0.00 0.01 0.01 98 1015.0
20190222173704 47 33 6.0 9.0 0.00 0.01 0.01 98 1015.0
20190222173604 47 32 6.0 9.0 0.00 0.01 0.01 98 1015.0
20190222173504 47 30 6.0 9.0 0.00 0.01 0.01 98 1015.0
20190222173404 47 32 6.0 8.0 0.00 0.02 0.01 98 1014.9
20190222173304 47 32 6.0 10.0 0.00 0.02 0.01 98 1015.0
20190222173204 47 31 6.0 10.0 0.00 0.02 0.01 98 1015.0
20190222173104 47 30 7.0 10.0 0.00 0.02 0.01 98 1015.0
20190222173004 47 29 7.0 10.0 0.00 0.02 0.01 98 1015.1
20190222172904 47 28 7.0 10.0 0.00 0.02 0.01 98 1015.1
20190222172804 47 29 7.0 10.0 0.00 0.02 0.01 98 1015.1
20190222172704 47 30 7.0 10.0 0.00 0.02 0.01 98 1015.1
20190222172604 47 30 7.0 10.0 0.00 0.02 0.01 98 1015.1
20190222172505 47 29 7.0 10.0 0.00 0.02 0.01 98 1015.1
20190222172404 47 28 7.0 10.0 0.00 0.02 0.01 98 1015.1
20190222172304 47 29 6.0 9.0 0.00 0.02 0.01 98 1015.1
20190222172204 47 28 6.0 9.0 0.00 0.02 0.01 98 1015.1
20190222172104 47 25 6.0 9.0 0.00 0.02 0.01 98 1015.2
20190222172004 47 25 6.0 9.0 0.00 0.02 0.01 98 1015.2
20190222171904 47 23 6.0 8.0 0.00 0.02 0.01 98 1015.3
20190222171804 47 19 6.0 9.0 0.00 0.02 0.01 98 1015.3
20190222171704 47 17 6.0 9.0 0.00 0.02 0.01 98 1015.3
20190222171604 47 17 6.0 9.0 0.00 0.02 0.01 98 1015.3
20190222171505 47 16 6.0 9.0 0.00 0.02 0.01 98 1015.3
20190222171404 47 16 6.0 9.0 0.00 0.02 0.01 98 1015.3
20190222171304 47 17 6.0 9.0 0.00 0.02 0.01 98 1015.3
20190222171204 47 18 6.0 9.0 0.00 0.02 0.01 98 1015.3
20190222171104 47 19 6.0 9.0 0.01 0.02 0.01 98 1015.3
20190222171005 47 21 7.0 9.0 0.01 0.02 0.01 98 1015.2
20190222170904 47 23 6.0 9.0 0.01 0.02 0.01 98 1015.1
20190222170804 47 24 6.0 9.0 0.01 0.02 0.01 98 1015.1
20190222170704 47 26 6.0 10.0 0.01 0.02 0.01 98 1015.2
20190222170604 47 26 6.0 10.0 0.01 0.02 0.01 98 1015.2
20190222170504 47 27 7.0 10.0 0.01 0.02 0.01 98 1015.1
20190222170404 47 27 7.0 10.0 0.01 0.02 0.01 98 1015.2
20190222170304 47 25 7.0 10.0 0.01 0.02 0.01 98 1015.1
20190222170204 47 26 7.0 10.0 0.01 0.02 0.01 98 1015.1
20190222170103 47 27 7.0 10.0 0.01 0.02 0.01 98 1015.1
20190222170004 47 27 7.0 10.0 0.01 0.02 0.01 98 1015.1
20190222165904 47 27 7.0 10.0 0.01 0.02 0.01 98 1015.1
20190222165804 47 29 7.0 10.0 0.01 0.02 0.01 98 1015.1
20190222165704 47 31 7.0 10.0 0.01 0.02 0.01 98 1015.1
20190222165604 47 32 7.0 10.0 0.01 0.02 0.01 98 1015.1
20190222165504 47 33 6.0 10.0 0.01 0.02 0.01 98 1015.1
20190222165405 47 35 6.0 10.0 0.01 0.02 0.01 98 1015.1
20190222165304 47 37 6.0 9.0 0.01 0.02 0.01 98 1015.1
20190222165203 47 37 6.0 9.0 0.01 0.02 0.01 98 1015.2
20190222165104 47 37 6.0 9.0 0.01 0.02 0.01 98 1015.2
20190222165004 47 36 6.0 9.0 0.01 0.02 0.01 98 1015.2
20190222164904 47 35 6.0 9.0 0.01 0.02 0.01 98 1015.2
20190222164804 47 32 6.0 9.0 0.01 0.03 0.01 98 1015.2
20190222164705 47 27 6.0 8.0 0.01 0.03 0.01 98 1015.2
20190222164604 47 23 6.0 8.0 0.01 0.03 0.01 98 1015.2
20190222164504 47 22 6.0 8.0 0.01 0.03 0.01 98 1015.2
20190222164404 47 20 6.0 8.0 0.01 0.03 0.01 98 1015.2
20190222164304 47 18 6.0 8.0 0.01 0.03 0.01 98 1015.2
20190222164204 47 18 6.0 8.0 0.01 0.03 0.01 98 1015.2
20190222164104 47 17 6.0 8.0 0.01 0.03 0.01 98 1015.3
20190222164005 47 17 6.0 8.0 0.01 0.03 0.01 98 1015.3
20190222163904 47 18 6.0 8.0 0.01 0.03 0.01 98 1015.3
20190222163804 47 19 6.0 8.0 0.01 0.03 0.01 98 1015.3
20190222163704 47 20 6.0 8.0 0.01 0.03 0.01 98 1015.2
20190222163604 47 24 6.0 8.0 0.01 0.03 0.01 98 1015.1
20190222163504 47 27 5.0 8.0 0.01 0.03 0.01 98 1015.1